M I D A S
Marine Information and Data Acquisition System
Tripno 1698 of the Zeeleeuw from 2009-05-25 11:32:49 to 2009-05-25 13:15:00
Back to CruiseResearch ActivitiesStationsMapUnderway DataData graphs

EquipmentUnitsComment
TimeDGPSUTC
LatitudeDGPSDM.mWGS84
LongitudeDGPSDM.mWGS84
TemperatureSBE03/SBE38deg celciusITS90
ConductivitySBE21S/mITS90
SalinitySBE21 Practical Salinity Units
ChlorophylAChelsea fluorimeterg/lCalibrated in Aceton
Missing or incorrect values are displayed as -999
Sea surface data collected by the RV Zeeleeuw from 2009-05-25 07:24:38 to 2009-05-25 13:27:20
                                                                                    Next 1000 lines
Time Latitude Longitude Temperature Conductivity Salinity ChlorophylA
2009-05-25 07:24:48 51°13.663 2°55.955 -999 0.02317 0.123179 -0.7568
2009-05-25 07:24:53 51°13.664 2°55.953 -999 0.02317 0.123177 -0.7568
2009-05-25 07:24:58 51°13.664 2°55.951 -999 0.02317 0.123171 -0.7568
2009-05-25 07:25:03 51°13.665 2°55.948 -999 0.02317 0.123171 -0.7568
2009-05-25 07:25:08 51°13.666 2°55.945 -999 0.02317 0.123169 -0.7568
2009-05-25 07:25:13 51°13.667 2°55.942 -999 0.02317 0.123169 -0.791624
2009-05-25 07:25:18 51°13.667 2°55.939 -999 0.02317 0.123173 -0.7568
2009-05-25 07:25:23 51°13.668 2°55.936 -999 0.02317 0.123171 -0.7568
2009-05-25 07:25:28 51°13.669 2°55.932 -999 0.02317 0.123173 -0.791624
2009-05-25 07:25:33 51°13.671 2°55.928 -999 0.02317 0.123173 -0.791624
2009-05-25 07:25:38 51°13.672 2°55.924 -999 0.02317 0.123175 -0.7568
2009-05-25 07:25:43 51°13.673 2°55.92 -999 0.02317 0.123179 -0.7568
2009-05-25 07:25:48 51°13.674 2°55.916 -999 0.02317 0.123181 -0.7568
2009-05-25 07:25:53 51°13.676 2°55.912 -999 0.02317 0.123183 -0.7568
2009-05-25 07:25:58 51°13.677 2°55.907 -999 0.02317 0.123185 -0.7568
2009-05-25 07:26:03 51°13.679 2°55.902 -999 0.02317 0.123185 -0.7568
2009-05-25 07:26:08 51°13.681 2°55.898 -999 0.02317 0.123185 -0.7568
2009-05-25 07:26:13 51°13.683 2°55.893 -999 0.02317 0.123185 -0.7568
2009-05-25 07:26:18 51°13.685 2°55.888 -999 0.02317 0.123187 -0.7568
2009-05-25 07:26:23 51°13.686 2°55.883 -999 0.02317 0.123189 -0.7568
2009-05-25 07:26:28 51°13.688 2°55.878 -999 0.02317 0.123189 -0.7568
2009-05-25 07:26:33 51°13.69 2°55.873 -999 0.02317 0.123189 -0.7568
2009-05-25 07:26:38 51°13.692 2°55.868 -999 0.02317 0.123191 -0.7568
2009-05-25 07:26:43 51°13.693 2°55.862 -999 0.02317 0.123191 -0.7568
2009-05-25 07:26:48 51°13.694 2°55.857 -999 0.02317 0.123189 -0.7568
2009-05-25 07:26:53 51°13.696 2°55.851 -999 0.02317 0.123187 -0.7568
2009-05-25 07:26:58 51°13.697 2°55.845 -999 0.02317 0.123183 -0.7568
2009-05-25 07:27:03 51°13.698 2°55.839 -999 0.02317 0.123183 -0.7568
2009-05-25 07:27:08 51°13.698 2°55.833 -999 0.02317 0.123183 -0.791624
2009-05-25 07:27:13 51°13.699 2°55.826 -999 0.02317 0.123183 -0.7568
2009-05-25 07:27:18 51°13.7 2°55.82 -999 0.02317 0.123187 -0.7568
2009-05-25 07:27:23 51°13.7 2°55.814 -999 0.02317 0.123189 -0.7568
2009-05-25 07:27:28 51°13.701 2°55.808 -999 0.02317 0.123193 -0.7568
2009-05-25 07:27:33 51°13.701 2°55.802 -999 0.02317 0.123193 -0.7568
2009-05-25 07:27:38 51°13.702 2°55.796 -999 0.02317 0.123194 -0.7568
2009-05-25 07:27:43 51°13.702 2°55.79 -999 0.02317 0.123196 -0.7568
2009-05-25 07:27:48 51°13.703 2°55.784 -999 0.02317 0.123198 -0.7568
2009-05-25 07:27:53 51°13.703 2°55.778 -999 0.02317 0.1232 -0.7568
2009-05-25 07:27:58 51°13.703 2°55.772 -999 0.02317 0.123202 -0.7568
2009-05-25 07:28:03 51°13.704 2°55.767 -999 0.02317 0.123202 -0.7568
2009-05-25 07:28:08 51°13.704 2°55.762 -999 0.02317 0.123204 -0.791624
2009-05-25 07:28:12 51°13.704 2°55.758 -999 0.02317 0.123206 -0.7568
2009-05-25 07:28:18 51°13.705 2°55.752 -999 0.02317 0.123208 -0.7568
2009-05-25 07:28:23 51°13.705 2°55.748 -999 0.02317 0.123208 -0.7568
2009-05-25 07:28:27 51°13.705 2°55.745 -999 0.02317 0.12321 -0.791624
2009-05-25 07:28:32 51°13.705 2°55.742 -999 0.02317 0.12321 -0.791624
2009-05-25 07:28:37 51°13.705 2°55.74 -999 0.02317 0.123212 -0.7568
2009-05-25 07:28:42 51°13.706 2°55.739 -999 0.02317 0.123212 -0.7568
2009-05-25 07:28:47 51°13.706 2°55.74 -999 0.02317 0.123216 -0.7568
2009-05-25 07:28:52 51°13.706 2°55.74 -999 0.02317 0.123218 -0.7568
2009-05-25 07:28:56 51°13.707 2°55.741 -999 0.02317 0.12322 -0.7568
2009-05-25 07:29:01 51°13.708 2°55.743 -999 0.02317 0.12322 -0.7568
2009-05-25 07:29:07 51°13.709 2°55.745 -999 0.02317 0.123222 -0.7568
2009-05-25 07:29:11 51°13.71 2°55.746 -999 0.02317 0.123224 -0.791624
2009-05-25 07:29:16 51°13.711 2°55.748 -999 0.02317 0.123224 -0.7568
2009-05-25 07:29:20 51°13.712 2°55.749 -999 0.02317 0.123224 -0.7568
2009-05-25 07:29:26 51°13.713 2°55.75 -999 0.02317 0.123224 -0.7568
2009-05-25 07:29:31 51°13.713 2°55.75 -999 0.02317 0.123224 -0.7568
2009-05-25 07:29:35 51°13.713 2°55.75 -999 0.02317 0.123224 -0.7568
2009-05-25 07:29:40 51°13.713 2°55.75 -999 0.02317 0.123224 -0.7568
2009-05-25 07:29:45 51°13.712 2°55.749 -999 0.02317 0.123224 -0.7568
2009-05-25 07:29:50 51°13.711 2°55.748 -999 0.02317 0.123214 -0.7568
2009-05-25 07:29:55 51°13.71 2°55.746 -999 0.02317 0.123208 -0.791624
2009-05-25 07:29:59 51°13.71 2°55.746 -999 0.02317 0.123208 -0.791624
2009-05-25 07:30:04 51°13.709 2°55.744 -999 0.02317 0.123206 -0.7568
2009-05-25 07:30:09 51°13.708 2°55.743 -999 0.02317 0.123206 -0.7568
2009-05-25 07:30:15 51°13.707 2°55.742 -999 0.02317 0.123208 -0.7568
2009-05-25 07:30:20 51°13.707 2°55.741 -999 0.02317 0.123212 -0.7568
2009-05-25 07:30:25 51°13.707 2°55.74 -999 0.02317 0.123216 -0.7568
2009-05-25 07:30:30 51°13.707 2°55.74 -999 0.02317 0.123216 -0.7568
2009-05-25 07:30:35 51°13.709 2°55.74 -999 0.02317 0.12322 -0.7568
2009-05-25 07:30:40 51°13.71 2°55.74 -999 0.02317 0.123224 -0.7568
2009-05-25 07:30:45 51°13.712 2°55.739 -999 0.02317 0.123229 -0.791624
2009-05-25 07:30:50 51°13.715 2°55.738 -999 0.02317 0.123233 -0.791624
2009-05-25 07:30:55 51°13.718 2°55.737 -999 0.02317 0.123235 -0.7568
2009-05-25 07:30:59 51°13.721 2°55.735 -999 0.02317 0.123235 -0.7568
2009-05-25 07:31:04 51°13.724 2°55.733 -999 0.02317 0.123237 -0.7568
2009-05-25 07:31:09 51°13.728 2°55.73 -999 0.02317 0.123239 -0.791624
2009-05-25 07:31:14 51°13.732 2°55.727 -999 0.02317 0.123239 -0.7568
2009-05-25 07:31:19 51°13.737 2°55.722 -999 0.02317 0.123239 -0.7568
2009-05-25 07:31:23 51°13.741 2°55.719 -999 0.02317 0.123241 -0.7568
2009-05-25 07:31:29 51°13.747 2°55.713 -999 0.02317 0.123241 -0.7568
2009-05-25 07:31:34 51°13.752 2°55.708 -999 0.02317 0.123239 -0.7568
2009-05-25 07:31:39 51°13.758 2°55.702 -999 0.02317 0.123239 -0.7568
2009-05-25 07:31:44 51°13.764 2°55.696 -999 0.02317 0.123241 -0.7568
2009-05-25 07:31:49 51°13.77 2°55.69 -999 0.02317 0.123241 -0.7568
2009-05-25 07:31:54 51°13.776 2°55.684 -999 0.02317 0.123239 -0.7568
2009-05-25 07:31:59 51°13.783 2°55.677 -999 0.02317 0.123239 -0.7568
2009-05-25 07:32:04 51°13.79 2°55.671 -999 0.02317 0.123239 -0.7568
2009-05-25 07:32:09 51°13.797 2°55.664 -999 0.02317 0.123241 -0.7568
2009-05-25 07:32:14 51°13.804 2°55.658 -999 0.02317 0.123241 -0.7568
2009-05-25 07:32:19 51°13.812 2°55.652 -999 0.02317 0.123241 -0.7568
2009-05-25 07:32:24 51°13.819 2°55.645 -999 0.02317 0.123241 -0.7568
2009-05-25 07:32:29 51°13.827 2°55.639 -999 0.02317 0.123241 -0.7568
2009-05-25 07:32:34 51°13.835 2°55.633 -999 0.02317 0.123241 -0.7568
2009-05-25 07:32:39 51°13.843 2°55.627 -999 0.02317 0.123241 -0.7568
2009-05-25 07:32:43 51°13.849 2°55.622 -999 0.02317 0.123243 -0.7568
2009-05-25 07:32:49 51°13.859 2°55.615 -999 0.02317 0.123245 -0.7568
2009-05-25 07:32:54 51°13.867 2°55.609 -999 0.02317 0.123245 -0.791624
2009-05-25 07:32:59 51°13.875 2°55.603 -999 0.02317 0.123245 -0.791624
2009-05-25 07:33:04 51°13.884 2°55.597 -999 0.02317 0.123247 -0.7568
2009-05-25 07:33:09 51°13.892 2°55.592 -999 0.02317 0.123247 -0.7568
2009-05-25 07:33:14 51°13.901 2°55.586 -999 0.02317 0.123249 -0.7568
2009-05-25 07:33:19 51°13.909 2°55.58 -999 0.02317 0.123249 -0.7568
2009-05-25 07:33:24 51°13.917 2°55.573 -999 0.02317 0.123249 -0.7568
2009-05-25 07:33:29 51°13.926 2°55.566 -999 0.02317 0.123249 -0.7568
2009-05-25 07:33:34 51°13.934 2°55.559 -999 0.02317 0.123251 -0.7568
2009-05-25 07:33:39 51°13.942 2°55.553 -999 0.02317 0.123251 -0.791624
2009-05-25 07:33:44 51°13.951 2°55.546 -999 0.02317 0.123253 -0.7568
2009-05-25 07:33:48 51°13.958 2°55.541 -999 0.02317 0.123251 -0.7568
2009-05-25 07:33:54 51°13.968 2°55.533 -999 0.02317 0.123253 -0.7568
2009-05-25 07:33:59 51°13.977 2°55.526 -999 0.02317 0.123253 -0.7568
2009-05-25 07:34:04 51°13.986 2°55.519 -999 0.02317 0.123253 -0.7568
2009-05-25 07:34:09 51°13.996 2°55.512 -999 0.02317 0.123255 -0.7568
2009-05-25 07:34:14 51°14.005 2°55.505 -999 0.02317 0.123255 -0.7568
2009-05-25 07:34:19 51°14.015 2°55.498 -999 0.02317 0.123257 -0.7568
2009-05-25 07:34:24 51°14.025 2°55.49 -999 0.02317 0.123255 -0.7568
2009-05-25 07:34:29 51°14.035 2°55.483 -999 0.02317 0.123255 -0.7568
2009-05-25 07:34:34 51°14.045 2°55.475 -999 0.02317 0.123255 -0.7568
2009-05-25 07:34:39 51°14.055 2°55.467 -999 0.02317 0.123255 -0.7568
2009-05-25 07:34:44 51°14.065 2°55.46 -999 0.02317 0.123255 -0.7568
2009-05-25 07:34:49 51°14.075 2°55.452 -999 0.02317 0.123255 -0.7568
2009-05-25 07:34:54 51°14.085 2°55.444 -999 0.02317 0.123255 -0.7568
2009-05-25 07:34:59 51°14.095 2°55.435 -999 0.02317 0.123255 -0.7568
2009-05-25 07:35:04 51°14.105 2°55.427 -999 0.02317 0.123255 -0.7568
2009-05-25 07:35:09 51°14.116 2°55.419 -999 0.02317 0.123255 -0.7568
2009-05-25 07:35:14 51°14.126 2°55.411 -999 0.02317 0.123255 -0.7568
2009-05-25 07:35:19 51°14.136 2°55.403 -999 0.02317 0.123253 -0.7568
2009-05-25 07:35:24 51°14.147 2°55.395 -999 0.02317 0.123251 -0.7568
2009-05-25 07:35:29 51°14.157 2°55.387 -999 0.02317 0.123251 -0.7568
2009-05-25 07:35:34 51°14.168 2°55.379 -999 0.02317 0.123253 -0.7568
2009-05-25 07:35:39 51°14.178 2°55.37 -999 0.02317 0.123245 -0.7568
2009-05-25 07:35:44 51°14.188 2°55.361 -999 0.02317 0.123243 -0.7568
2009-05-25 07:35:49 51°14.198 2°55.351 -999 0.02317 0.123247 -0.7568
2009-05-25 07:35:54 51°14.208 2°55.341 -999 0.02317 0.123251 -0.7568
2009-05-25 07:35:59 51°14.217 2°55.329 -999 0.02317 0.123251 -0.7568
2009-05-25 07:36:04 51°14.227 2°55.318 -999 0.02317 0.123257 -0.7568
2009-05-25 07:36:09 51°14.235 2°55.306 -999 0.02317 0.123259 -0.7568
2009-05-25 07:36:14 51°14.244 2°55.293 -999 0.02317 0.123264 -0.7568
2009-05-25 07:36:19 51°14.252 2°55.28 -999 0.02317 0.123266 -0.791624
2009-05-25 07:36:24 51°14.261 2°55.267 -999 0.02317 0.123268 -0.7568
2009-05-25 07:36:29 51°14.268 2°55.253 -999 0.02317 0.123268 -0.7568
2009-05-25 07:36:35 51°14.278 2°55.236 -999 0.02317 0.123266 -0.7568
2009-05-25 07:36:39 51°14.284 2°55.225 -999 0.02317 0.123257 -0.791624
2009-05-25 07:36:44 51°14.292 2°55.21 -999 0.02317 0.123255 -0.7568
2009-05-25 07:36:49 51°14.3 2°55.195 -999 0.02317 0.123247 -0.7568
2009-05-25 07:36:55 51°14.309 2°55.177 -999 0.02317 0.123251 -0.7568
2009-05-25 07:36:59 51°14.314 2°55.165 -999 0.02317 0.123251 -0.7568
2009-05-25 07:37:03 51°14.32 2°55.152 -999 0.02317 0.123255 -0.7568
2009-05-25 07:37:09 51°14.328 2°55.133 -999 0.02317 0.123259 -0.7568
2009-05-25 07:37:15 51°14.336 2°55.114 -999 0.02317 0.123262 -0.7568
2009-05-25 07:37:19 51°14.341 2°55.101 -999 0.02317 0.123262 -0.791624
2009-05-25 07:37:23 51°14.345 2°55.088 -999 0.02317 0.123264 -0.7568
2009-05-25 07:37:29 51°14.353 2°55.068 -999 0.02317 0.123264 -0.7568
2009-05-25 07:37:34 51°14.358 2°55.051 -999 0.02317 0.123262 -0.7568
2009-05-25 07:37:39 51°14.364 2°55.033 -999 0.02317 0.123259 -0.7568
2009-05-25 07:37:44 51°14.37 2°55.016 -999 0.02317 0.123259 -0.7568
2009-05-25 07:37:49 51°14.375 2°54.998 -999 0.02317 0.123264 -0.7568
2009-05-25 07:37:54 51°14.379 2°54.98 -999 0.02317 0.12327 -0.7568
2009-05-25 07:37:59 51°14.384 2°54.961 -999 0.02317 0.12327 -0.7568
2009-05-25 07:38:04 51°14.388 2°54.942 -999 0.02317 0.123274 -0.791624
2009-05-25 07:38:10 51°14.394 2°54.919 -999 0.02317 0.12328 -0.7568
2009-05-25 07:38:14 51°14.398 2°54.904 -999 0.02317 0.123284 -0.7568
2009-05-25 07:38:20 51°14.405 2°54.882 -999 0.02317 0.123284 -0.7568
2009-05-25 07:38:24 51°14.41 2°54.868 -999 0.02317 0.123288 -0.791624
2009-05-25 07:38:29 51°14.418 2°54.851 -999 0.02317 0.123288 -0.791624
2009-05-25 07:38:34 51°14.425 2°54.834 -999 0.02317 0.123295 -0.7568
2009-05-25 07:38:39 51°14.433 2°54.818 -999 0.02317 0.123303 -0.7568
2009-05-25 07:38:45 51°14.443 2°54.798 -999 0.02317 0.123309 -0.7568
2009-05-25 07:38:49 51°14.449 2°54.784 -999 0.02317 0.123315 -0.7568
2009-05-25 07:38:54 51°14.456 2°54.765 -999 0.02317 0.123317 -0.7568
2009-05-25 07:39:00 51°14.465 2°54.744 -999 0.02317 0.123317 -0.7568
2009-05-25 07:39:04 51°14.471 2°54.729 -999 0.02317 0.123311 -0.7568
2009-05-25 07:39:09 51°14.478 2°54.71 -999 0.02317 0.123305 -0.791624
2009-05-25 07:39:14 51°14.486 2°54.691 -999 0.02317 0.123299 -0.7568
2009-05-25 07:39:20 51°14.494 2°54.668 -999 0.02317 0.123299 -0.7568
2009-05-25 07:39:24 51°14.499 2°54.651 -999 0.02317 0.123301 -0.7568
2009-05-25 07:39:29 51°14.506 2°54.632 -999 0.02317 0.123301 -0.7568
2009-05-25 07:39:34 51°14.513 2°54.611 -999 0.02317 0.123299 -0.7568
2009-05-25 07:39:39 51°14.519 2°54.591 -999 0.02317 0.123299 -0.791624
2009-05-25 07:39:44 51°14.525 2°54.57 -999 0.02317 0.123297 -0.7568
2009-05-25 07:39:49 51°14.531 2°54.549 -999 0.02317 0.123299 -0.7568
2009-05-25 07:39:54 51°14.537 2°54.528 -999 0.02317 0.123303 -0.7568
2009-05-25 07:39:59 51°14.543 2°54.507 -999 0.02317 0.123303 -0.7568
2009-05-25 07:40:04 51°14.548 2°54.485 -999 0.02317 0.123303 -0.7568
2009-05-25 07:40:09 51°14.554 2°54.464 -999 0.02317 0.123307 -0.7568
2009-05-25 07:40:14 51°14.559 2°54.442 -999 0.02317 0.123305 -0.7568
2009-05-25 07:40:19 51°14.564 2°54.42 -999 0.02317 0.123305 -0.7568
2009-05-25 07:40:24 51°14.569 2°54.399 -999 0.02317 0.123305 -0.7568
2009-05-25 07:40:29 51°14.574 2°54.377 -999 0.02317 0.123305 -0.7568
2009-05-25 07:40:34 51°14.58 2°54.355 -999 0.02317 0.123305 -0.791624
2009-05-25 07:40:39 51°14.585 2°54.333 -999 0.02317 0.123301 -0.7568
2009-05-25 07:40:44 51°14.59 2°54.311 -999 0.02317 0.123303 -0.7568
2009-05-25 07:40:49 51°14.595 2°54.289 -999 0.02317 0.123303 -0.7568
2009-05-25 07:40:54 51°14.6 2°54.267 -999 0.02317 0.123305 -0.7568
2009-05-25 07:40:59 51°14.605 2°54.246 -999 0.02317 0.123305 -0.7568
2009-05-25 07:41:04 51°14.61 2°54.224 -999 0.02317 0.123303 -0.7568
2009-05-25 07:41:09 51°14.615 2°54.202 -999 0.02317 0.123307 -0.7568
2009-05-25 07:41:14 51°14.62 2°54.18 -999 0.02317 0.123313 -0.7568
2009-05-25 07:41:19 51°14.624 2°54.157 -999 0.02317 0.123315 -0.7568
2009-05-25 07:41:24 51°14.628 2°54.135 -999 0.02317 0.123313 -0.7568
2009-05-25 07:41:29 51°14.632 2°54.111 -999 0.02317 0.123313 -0.7568
2009-05-25 07:41:34 51°14.636 2°54.088 -999 0.02317 0.123311 -0.7568
2009-05-25 07:41:39 51°14.64 2°54.064 -999 0.02317 0.123313 -0.7568
2009-05-25 07:41:44 51°14.643 2°54.04 -999 0.02317 0.123313 -0.7568
2009-05-25 07:41:49 51°14.646 2°54.015 -999 0.02317 0.123315 -0.7568
2009-05-25 07:41:54 51°14.649 2°53.991 -999 0.02317 0.123321 -0.7568
2009-05-25 07:41:59 51°14.652 2°53.966 -999 0.02317 0.123321 -0.7568
2009-05-25 07:42:04 51°14.655 2°53.94 -999 0.02317 0.123328 -0.7568
2009-05-25 07:42:09 51°14.658 2°53.914 -999 0.02317 0.123336 -0.7568
2009-05-25 07:42:14 51°14.661 2°53.888 -999 0.02317 0.123334 -0.7568
2009-05-25 07:42:20 51°14.665 2°53.857 -999 0.02317 0.123334 -0.7568
2009-05-25 07:42:24 51°14.667 2°53.836 -999 0.02317 0.123327 -0.7568
2009-05-25 07:42:29 51°14.67 2°53.809 -999 0.02317 0.123327 -0.7568
2009-05-25 07:42:34 51°14.673 2°53.782 -999 0.02317 0.123328 -0.7568
2009-05-25 07:42:39 51°14.676 2°53.756 -999 0.02317 0.123332 -0.7568
2009-05-25 07:42:44 51°14.679 2°53.729 -999 0.02317 0.123336 -0.7568
2009-05-25 07:42:49 51°14.682 2°53.702 -999 0.02317 0.12334 -0.791624
2009-05-25 07:42:54 51°14.684 2°53.675 -999 0.02317 0.123348 -0.7568
2009-05-25 07:42:59 51°14.687 2°53.648 -999 0.02317 0.123348 -0.7568
2009-05-25 07:43:04 51°14.69 2°53.622 -999 0.02317 0.123352 -0.7568
2009-05-25 07:43:09 51°14.693 2°53.595 -999 0.02317 0.123356 -0.7568
2009-05-25 07:43:14 51°14.696 2°53.568 -999 0.02317 0.123356 -0.7568
2009-05-25 07:43:19 51°14.699 2°53.541 -999 0.02317 0.123358 -0.7568
2009-05-25 07:43:24 51°14.702 2°53.515 -999 0.02317 0.12336 -0.791624
2009-05-25 07:43:29 51°14.705 2°53.488 -999 0.02317 0.12336 -0.791624
2009-05-25 07:43:34 51°14.708 2°53.461 -999 0.02317 0.123365 -0.7568
2009-05-25 07:43:39 51°14.711 2°53.435 -999 0.02317 0.123365 -0.7568
2009-05-25 07:43:44 51°14.714 2°53.408 -999 0.02317 0.123369 -0.7568
2009-05-25 07:43:49 51°14.717 2°53.381 -999 0.02317 0.123373 -0.7568
2009-05-25 07:43:54 51°14.72 2°53.354 -999 0.02317 0.123373 -0.7568
2009-05-25 07:43:59 51°14.723 2°53.327 -999 0.02317 0.123373 -0.7568
2009-05-25 07:44:04 51°14.726 2°53.3 -999 0.02317 0.123377 -0.7568
2009-05-25 07:44:09 51°14.729 2°53.273 -999 0.02317 0.123377 -0.7568
2009-05-25 07:44:14 51°14.732 2°53.246 -999 0.02317 0.123379 -0.7568
2009-05-25 07:44:20 51°14.736 2°53.214 -999 0.02317 0.123379 -0.7568
2009-05-25 07:44:24 51°14.739 2°53.193 -999 0.02317 0.123385 -0.791624
2009-05-25 07:44:29 51°14.742 2°53.166 -999 0.02317 0.123385 -0.791624
2009-05-25 07:44:34 51°14.745 2°53.139 -999 0.02317 0.123385 -0.7568
2009-05-25 07:44:39 51°14.748 2°53.112 -999 0.02317 0.123385 -0.7568
2009-05-25 07:44:44 51°14.752 2°53.085 -999 0.02317 0.123389 -0.7568
2009-05-25 07:44:49 51°14.755 2°53.058 -999 0.02317 0.123395 -0.7568
2009-05-25 07:44:54 51°14.759 2°53.031 -999 0.02317 0.123393 -0.7568
2009-05-25 07:44:59 51°14.762 2°53.004 -999 0.02317 0.123393 -0.7568
2009-05-25 07:45:04 51°14.766 2°52.977 -999 0.02317 0.123391 -0.7568
2009-05-25 07:45:09 51°14.769 2°52.95 -999 0.02317 0.123395 -0.7568
2009-05-25 07:45:14 51°14.772 2°52.923 -999 0.02317 0.1234 -0.7568
2009-05-25 07:45:19 51°14.776 2°52.896 -999 0.023067 0.122865 -0.7568
2009-05-25 07:45:24 51°14.779 2°52.868 -999 0.023067 0.122861 -0.7568
2009-05-25 07:45:29 51°14.783 2°52.841 -999 0.023067 0.122861 -0.7568
2009-05-25 07:45:34 51°14.786 2°52.814 -999 0.02317 0.123408 -0.7568
2009-05-25 07:45:39 51°14.79 2°52.787 -999 0.02317 0.123418 -0.7568
2009-05-25 07:45:44 51°14.793 2°52.76 -999 0.02317 0.123418 -0.7568
2009-05-25 07:45:49 51°14.797 2°52.733 -999 0.02317 0.123424 -0.7568
2009-05-25 07:45:54 51°14.8 2°52.706 -999 0.02317 0.123424 -0.791624
2009-05-25 07:45:59 51°14.804 2°52.679 -999 0.02317 0.123424 -0.791624
2009-05-25 07:46:04 51°14.808 2°52.652 -999 0.02317 0.123426 -0.7568
2009-05-25 07:46:09 51°14.811 2°52.625 -999 0.02317 0.123424 -0.7568
2009-05-25 07:46:14 51°14.815 2°52.598 -999 0.02317 0.12343 -0.7568
2009-05-25 07:46:19 51°14.819 2°52.571 -999 0.02317 0.123436 -0.7568
2009-05-25 07:46:24 51°14.822 2°52.544 -999 0.023273 0.123987 -0.7568
2009-05-25 07:46:29 51°14.826 2°52.517 -999 0.023273 0.123987 -0.7568
2009-05-25 07:46:34 51°14.83 2°52.49 -999 0.02317 0.123447 -0.7568
2009-05-25 07:46:40 51°14.834 2°52.457 -999 0.023273 0.123983 -0.7568
2009-05-25 07:46:44 51°14.837 2°52.436 -999 0.02317 0.123449 -0.7568
2009-05-25 07:46:49 51°14.841 2°52.409 -999 0.02317 0.123459 -0.7568
2009-05-25 07:46:54 51°14.845 2°52.382 -999 0.02317 0.123461 -0.7568
2009-05-25 07:47:00 51°14.849 2°52.349 -999 0.02317 0.123461 -0.7568
2009-05-25 07:47:04 51°14.852 2°52.328 -999 0.02317 0.123467 -0.7568
2009-05-25 07:47:09 51°14.856 2°52.301 -999 0.02317 0.123471 -0.7568
2009-05-25 07:47:14 51°14.86 2°52.274 -999 0.02317 0.123469 -0.7568
2009-05-25 07:47:19 51°14.863 2°52.247 -999 0.02317 0.123467 -0.7568
2009-05-25 07:47:24 51°14.867 2°52.22 -999 0.02317 0.123471 -0.7568
2009-05-25 07:47:29 51°14.871 2°52.193 -999 0.02317 0.123471 -0.7568
2009-05-25 07:47:34 51°14.874 2°52.166 -999 0.02317 0.123478 -0.7568
2009-05-25 07:47:39 51°14.878 2°52.138 -999 0.02317 0.123482 -0.7568
2009-05-25 07:47:44 51°14.882 2°52.111 -999 0.02317 0.123478 -0.7568
2009-05-25 07:47:49 51°14.886 2°52.084 -999 0.02317 0.123486 -0.7568
2009-05-25 07:47:54 51°14.889 2°52.057 -999 0.02317 0.123492 -0.7568
2009-05-25 07:47:59 51°14.893 2°52.03 -999 0.02317 0.123492 -0.7568
2009-05-25 07:48:04 51°14.897 2°52.003 -999 0.02317 0.123494 -0.7568
2009-05-25 07:48:09 51°14.9 2°51.975 -999 0.02317 0.123492 -0.7568
2009-05-25 07:48:14 51°14.904 2°51.948 -999 0.02317 0.123498 -0.7568
2009-05-25 07:48:19 51°14.908 2°51.921 -999 0.02317 0.123504 -0.7568
2009-05-25 07:48:24 51°14.912 2°51.894 -999 0.02317 0.123508 -0.7568
2009-05-25 07:48:29 51°14.915 2°51.866 -999 0.02317 0.123508 -0.7568
2009-05-25 07:48:34 51°14.919 2°51.839 -999 0.02317 0.123518 -0.7568
2009-05-25 07:48:39 51°14.923 2°51.812 -999 0.02317 0.123523 -0.7568
2009-05-25 07:48:44 51°14.927 2°51.785 -999 0.02317 0.123551 -0.7568
2009-05-25 07:48:49 51°14.929 2°51.757 -999 0.023376 0.12468 -0.7568
2009-05-25 07:48:54 51°14.933 2°51.73 -999 0.023273 0.124127 -0.7568
2009-05-25 07:48:59 51°14.933 2°51.702 -999 0.023273 0.124127 -0.7568
2009-05-25 07:49:04 51°14.935 2°51.674 -999 0.023273 0.124119 -0.7568
2009-05-25 07:49:09 51°14.935 2°51.645 -999 0.023273 0.124123 -0.7568
2009-05-25 07:49:14 51°14.935 2°51.617 -999 0.023273 0.124109 -0.7568
2009-05-25 07:49:19 51°14.935 2°51.588 -999 0.023273 0.124103 -0.7568
2009-05-25 07:49:24 51°14.934 2°51.56 -999 0.023273 0.124097 -0.7568
2009-05-25 07:49:29 51°14.933 2°51.531 -999 0.023273 0.124097 -0.7568
2009-05-25 07:49:34 51°14.932 2°51.502 -999 0.023273 0.124101 -0.7568
2009-05-25 07:49:39 51°14.931 2°51.473 -999 0.023273 0.124109 -0.7568
2009-05-25 07:49:44 51°14.93 2°51.445 -999 0.023273 0.124119 -0.7568
2009-05-25 07:49:49 51°14.928 2°51.416 -999 0.02317 0.123582 -0.7568
2009-05-25 07:49:54 51°14.926 2°51.387 -999 0.02317 0.123586 -0.7568
2009-05-25 07:49:59 51°14.924 2°51.358 -999 0.02317 0.123586 -0.7568
2009-05-25 07:50:04 51°14.922 2°51.329 -999 0.02317 0.123586 -0.7568
2009-05-25 07:50:09 51°14.92 2°51.3 -999 0.02317 0.123578 -0.7568
2009-05-25 07:50:14 51°14.918 2°51.272 -999 0.02317 0.123596 -0.7568
2009-05-25 07:50:19 51°14.916 2°51.243 -999 0.02317 0.123617 -0.7568
2009-05-25 07:50:24 51°14.916 2°51.214 -999 0.02317 0.123637 -0.7568
2009-05-25 07:50:29 51°14.915 2°51.185 -999 0.02317 0.123637 -0.7568
2009-05-25 07:50:34 51°14.914 2°51.156 -999 0.023376 0.124723 -0.7568
2009-05-25 07:50:39 51°14.914 2°51.129 -999 0.023273 0.124192 -0.7568
2009-05-25 07:50:44 51°14.914 2°51.105 -999 0.023376 0.124749 -0.7568
2009-05-25 07:50:49 51°14.913 2°51.081 -999 0.023273 0.124227 -0.791624
2009-05-25 07:50:54 51°14.912 2°51.06 -999 0.023273 0.124227 -0.7568
2009-05-25 07:50:59 51°14.911 2°51.039 -999 0.023273 0.124227 -0.7568
2009-05-25 07:51:04 51°14.91 2°51.02 -999 0.023376 0.124769 -0.7568
2009-05-25 07:51:09 51°14.908 2°51.002 -999 0.023376 0.124771 -0.7568
2009-05-25 07:51:14 51°14.906 2°50.986 -999 0.023376 0.124773 -0.791624
2009-05-25 07:51:19 51°14.904 2°50.97 -999 0.023376 0.124776 -0.7568
2009-05-25 07:51:24 51°14.903 2°50.955 -999 0.023376 0.124778 -0.7568
2009-05-25 07:51:28 51°14.901 2°50.944 -999 0.023376 0.124778 -0.7568
2009-05-25 07:51:34 51°14.9 2°50.928 -999 0.023376 0.124775 -0.7568
2009-05-25 07:51:39 51°14.899 2°50.916 -999 0.023376 0.124773 -0.7568
2009-05-25 07:51:44 51°14.898 2°50.905 -999 0.023273 0.124227 -0.7568
2009-05-25 07:51:48 51°14.897 2°50.897 -999 0.023479 0.125314 -0.7568
2009-05-25 07:51:54 51°14.897 2°50.886 -999 0.023479 0.125316 -0.7568
2009-05-25 07:51:59 51°14.897 2°50.877 -999 0.023479 0.125316 -0.7568
2009-05-25 07:52:04 51°14.896 2°50.868 -999 0.023376 0.124778 -0.7568
2009-05-25 07:52:09 51°14.896 2°50.86 -999 0.023376 0.124776 -0.7568
2009-05-25 07:52:14 51°14.896 2°50.853 -999 0.023376 0.124784 -0.7568
2009-05-25 07:52:19 51°14.895 2°50.846 -999 0.023376 0.124798 -0.7568
2009-05-25 07:52:24 51°14.895 2°50.84 -999 0.023479 0.125362 -0.7568
2009-05-25 07:52:29 51°14.894 2°50.834 -999 0.023479 0.125362 -0.7568
2009-05-25 07:52:34 51°14.893 2°50.827 -999 0.023582 0.125922 -0.7568
2009-05-25 07:52:39 51°14.893 2°50.821 -999 0.023479 0.12539 -0.7568
2009-05-25 07:52:44 51°14.892 2°50.815 -999 0.023582 0.125942 -0.7568
2009-05-25 07:52:49 51°14.892 2°50.808 -999 0.023582 0.12595 -0.7568
2009-05-25 07:52:54 51°14.891 2°50.802 -999 0.023479 0.12541 -0.7568
2009-05-25 07:52:59 51°14.891 2°50.796 -999 0.023479 0.12541 -0.7568
2009-05-25 07:53:04 51°14.89 2°50.789 -999 0.023582 0.125952 -0.7568
2009-05-25 07:53:09 51°14.89 2°50.783 -999 0.023479 0.125408 -0.7568
2009-05-25 07:53:13 51°14.89 2°50.778 -999 0.023479 0.125404 -0.7568
2009-05-25 07:53:19 51°14.89 2°50.77 -999 0.023582 0.12596 -0.7568
2009-05-25 07:53:24 51°14.89 2°50.764 -999 0.023479 0.125418 -0.7568
2009-05-25 07:53:29 51°14.89 2°50.757 -999 0.023479 0.125418 -0.7568
2009-05-25 07:53:34 51°14.89 2°50.751 -999 0.023479 0.125424 -0.7568
2009-05-25 07:53:40 51°14.89 2°50.744 -999 0.023479 0.125428 -0.7568
2009-05-25 07:53:44 51°14.891 2°50.74 -999 0.023479 0.125432 -0.7568
2009-05-25 07:53:49 51°14.891 2°50.734 -999 0.023479 0.125436 -0.7568
2009-05-25 07:53:54 51°14.891 2°50.728 -999 0.023479 0.125438 -0.7568
2009-05-25 07:53:59 51°14.892 2°50.723 -999 0.023479 0.125438 -0.7568
2009-05-25 07:54:04 51°14.892 2°50.717 -999 0.023376 0.124891 -0.7568
2009-05-25 07:54:09 51°14.893 2°50.712 -999 0.023376 0.12489 -0.7568
2009-05-25 07:54:13 51°14.893 2°50.707 -999 0.023376 0.124895 -0.7568
2009-05-25 07:54:19 51°14.894 2°50.701 -999 0.023376 0.124895 -0.7568
2009-05-25 07:54:24 51°14.895 2°50.696 -999 0.023376 0.124897 -0.7568
2009-05-25 07:54:29 51°14.897 2°50.691 -999 0.023376 0.124897 -0.7568
2009-05-25 07:54:34 51°14.898 2°50.686 -999 0.023376 0.124909 -0.7568
2009-05-25 07:54:39 51°14.899 2°50.681 -999 0.023479 0.125464 -0.7568
2009-05-25 07:54:44 51°14.901 2°50.676 -999 0.023376 0.124931 -0.7568
2009-05-25 07:54:49 51°14.902 2°50.671 -999 0.023376 0.124937 -0.7568
2009-05-25 07:54:54 51°14.904 2°50.667 -999 0.023479 0.125484 -0.7568
2009-05-25 07:54:59 51°14.907 2°50.662 -999 0.023479 0.125484 -0.7568
2009-05-25 07:55:04 51°14.909 2°50.658 -999 0.023479 0.125484 -0.7568
2009-05-25 07:55:08 51°14.911 2°50.654 -999 0.023582 0.12603 -0.7568
2009-05-25 07:55:14 51°14.914 2°50.649 -999 0.023479 0.125488 -0.7568
2009-05-25 07:55:19 51°14.916 2°50.645 -999 0.023479 0.12549 -0.7568
2009-05-25 07:55:24 51°14.919 2°50.641 -999 0.023479 0.125492 -0.7568
2009-05-25 07:55:29 51°14.922 2°50.637 -999 0.023479 0.125492 -0.7568
2009-05-25 07:55:34 51°14.925 2°50.634 -999 0.023479 0.125498 -0.7568
2009-05-25 07:55:39 51°14.928 2°50.631 -999 0.023582 0.12605 -0.7568
2009-05-25 07:55:44 51°14.931 2°50.627 -999 0.023479 0.125514 -0.7568
2009-05-25 07:55:49 51°14.934 2°50.625 -999 0.023479 0.125512 -0.7568
2009-05-25 07:55:54 51°14.938 2°50.622 -999 0.023479 0.12551 -0.7568
2009-05-25 07:55:59 51°14.941 2°50.619 -999 0.023479 0.12551 -0.7568
2009-05-25 07:56:04 51°14.944 2°50.617 -999 0.023479 0.125512 -0.791624
2009-05-25 07:56:09 51°14.948 2°50.615 -999 0.023684 0.126601 -0.7568
2009-05-25 07:56:14 51°14.951 2°50.613 -999 0.023479 0.125514 -0.7568
2009-05-25 07:56:19 51°14.954 2°50.612 -999 0.023479 0.125514 -0.7568
2009-05-25 07:56:24 51°14.958 2°50.611 -999 0.023684 0.126607 -0.7568
2009-05-25 07:56:29 51°14.961 2°50.61 -999 0.023684 0.126607 -0.7568
2009-05-25 07:56:33 51°14.964 2°50.609 -999 0.023582 0.126066 -0.7568
2009-05-25 07:56:39 51°14.968 2°50.609 -999 0.023479 0.125518 -0.7568
2009-05-25 07:56:44 51°14.971 2°50.608 -999 0.023479 0.125518 -0.7568
2009-05-25 07:56:49 51°14.974 2°50.608 -999 0.023479 0.125512 -0.7568
2009-05-25 07:56:54 51°14.977 2°50.609 -999 0.023479 0.12551 -0.7568
2009-05-25 07:56:59 51°14.979 2°50.609 -999 0.023479 0.12551 -0.7568
2009-05-25 07:57:04 51°14.982 2°50.61 -999 0.023479 0.125516 -0.7568
2009-05-25 07:57:09 51°14.984 2°50.611 -999 0.023479 0.125518 -0.7568
2009-05-25 07:57:14 51°14.986 2°50.613 -999 0.023479 0.125522 -0.7568
2009-05-25 07:57:19 51°14.988 2°50.614 -999 0.023479 0.125524 -0.7568
2009-05-25 07:57:24 51°14.989 2°50.616 -999 0.023479 0.125528 -0.7568
2009-05-25 07:57:29 51°14.991 2°50.618 -999 0.023479 0.125528 -0.7568
2009-05-25 07:57:34 51°14.992 2°50.62 -999 0.023479 0.125532 -0.7568
2009-05-25 07:57:39 51°14.993 2°50.622 -999 0.023479 0.125532 -0.7568
2009-05-25 07:57:44 51°14.994 2°50.624 -999 0.023479 0.125534 -0.7568
2009-05-25 07:57:48 51°14.995 2°50.626 -999 0.023582 0.126084 -0.7568
2009-05-25 07:57:54 51°14.997 2°50.629 -999 0.023479 0.125548 -0.7568
2009-05-25 07:57:59 51°14.997 2°50.631 -999 0.023479 0.125548 -0.7568
2009-05-25 07:58:04 51°14.998 2°50.634 -999 0.023479 0.125552 -0.7568
2009-05-25 07:58:09 51°14.999 2°50.637 -999 0.023479 0.125552 -0.7568
2009-05-25 07:58:14 51°15 2°50.64 -999 0.023479 0.125554 -0.7568
2009-05-25 07:58:19 51°15.001 2°50.642 -999 0.023479 0.125554 -0.7568
2009-05-25 07:58:24 51°15.002 2°50.645 -999 0.023479 0.125554 -0.7568
2009-05-25 07:58:29 51°15.002 2°50.648 -999 0.023479 0.125554 -0.7568
2009-05-25 07:58:34 51°15.003 2°50.651 -999 0.023582 0.1261 -0.7568
2009-05-25 07:58:39 51°15.003 2°50.654 -999 0.023582 0.126106 -0.7568
2009-05-25 07:58:44 51°15.004 2°50.657 -999 0.023684 0.126658 -0.791624
2009-05-25 07:58:49 51°15.005 2°50.661 -999 0.023787 0.127205 -0.7568
2009-05-25 07:58:54 51°15.005 2°50.664 -999 0.023582 0.126108 -0.7568
2009-05-25 07:58:59 51°15.006 2°50.668 -999 0.023582 0.126108 -0.7568
2009-05-25 07:59:04 51°15.006 2°50.672 -999 0.023582 0.126111 -0.7568
2009-05-25 07:59:09 51°15.006 2°50.676 -999 0.023684 0.12666 -0.7568
2009-05-25 07:59:13 51°15.007 2°50.679 -999 0.023684 0.126664 -0.7568
2009-05-25 07:59:19 51°15.007 2°50.685 -999 0.023684 0.12667 -0.7568
2009-05-25 07:59:24 51°15.007 2°50.689 -999 0.023582 0.126125 -0.7568
2009-05-25 07:59:29 51°15.008 2°50.694 -999 0.023582 0.126125 -0.7568
2009-05-25 07:59:34 51°15.008 2°50.698 -999 0.023684 0.12667 -0.7568
2009-05-25 07:59:39 51°15.008 2°50.703 -999 0.023787 0.127221 -0.7568
2009-05-25 07:59:44 51°15.009 2°50.708 -999 0.02389 0.127771 -0.791624
2009-05-25 07:59:49 51°15.009 2°50.712 -999 0.023787 0.127229 -0.7568
2009-05-25 07:59:54 51°15.009 2°50.717 -999 0.023582 0.126137 -0.7568
2009-05-25 07:59:59 51°15.009 2°50.722 -999 0.023582 0.126137 -0.7568
2009-05-25 08:00:04 51°15.009 2°50.727 -999 0.023787 0.127225 -0.791624
2009-05-25 08:00:08 51°15.009 2°50.731 -999 0.023582 0.126139 -0.7568
2009-05-25 08:00:14 51°15.009 2°50.737 -999 0.023684 0.126682 -0.7568
2009-05-25 08:00:19 51°15.009 2°50.742 -999 0.023787 0.127231 -0.7568
2009-05-25 08:00:24 51°15.008 2°50.747 -999 0.023787 0.127235 -0.7568
2009-05-25 08:00:29 51°15.008 2°50.752 -999 0.023787 0.127235 -0.7568
2009-05-25 08:00:34 51°15.007 2°50.757 -999 0.023787 0.127237 -0.7568
2009-05-25 08:00:39 51°15.007 2°50.763 -999 0.023684 0.126688 -0.7568
2009-05-25 08:00:44 51°15.006 2°50.768 -999 0.023582 0.126143 -0.7568
2009-05-25 08:00:49 51°15.006 2°50.773 -999 0.023993 0.128331 -0.7568
2009-05-25 08:00:54 51°15.005 2°50.779 -999 0.02389 0.127791 -0.7568
2009-05-25 08:00:59 51°15.004 2°50.784 -999 0.02389 0.127791 -0.7568
2009-05-25 08:01:04 51°15.003 2°50.79 -999 0.02389 0.127789 -0.7568
2009-05-25 08:01:09 51°15.002 2°50.795 -999 0.023787 0.12725 -0.7568
2009-05-25 08:01:14 51°15 2°50.801 -999 0.02389 0.127799 -0.7568
2009-05-25 08:01:19 51°14.999 2°50.807 -999 0.023684 0.126708 -0.7568
2009-05-25 08:01:24 51°14.998 2°50.812 -999 0.023787 0.127256 -0.7568
2009-05-25 08:01:29 51°14.996 2°50.818 -999 0.023787 0.127256 -0.7568
2009-05-25 08:01:33 51°14.995 2°50.822 -999 0.023684 0.12671 -0.7568
2009-05-25 08:01:39 51°14.993 2°50.829 -999 0.023684 0.126708 -0.7568
2009-05-25 08:01:44 51°14.991 2°50.834 -999 0.023684 0.126708 -0.7568
2009-05-25 08:01:49 51°14.989 2°50.84 -999 0.023582 0.126165 -0.7568
2009-05-25 08:01:54 51°14.987 2°50.845 -999 0.023582 0.126167 -0.7568
2009-05-25 08:01:59 51°14.985 2°50.851 -999 0.023582 0.126167 -0.7568
2009-05-25 08:02:04 51°14.982 2°50.856 -999 0.023582 0.126167 -0.7568
2009-05-25 08:02:09 51°14.98 2°50.862 -999 0.023684 0.126722 -0.7568
2009-05-25 08:02:14 51°14.977 2°50.867 -999 0.023684 0.126739 -0.7568
2009-05-25 08:02:19 51°14.975 2°50.872 -999 0.023582 0.126195 -0.7568
2009-05-25 08:02:24 51°14.972 2°50.877 -999 0.026257 0.140492 -0.7568
2009-05-25 08:02:29 51°14.969 2°50.882 -999 0.026257 0.140492 -0.7568
2009-05-25 08:02:33 51°14.966 2°50.886 -999 0.031505 0.168866 -0.7568
2009-05-25 08:02:39 51°14.962 2°50.892 -999 0.032123 0.172268 -0.7568
2009-05-25 08:02:44 51°14.959 2°50.897 -999 0.027286 0.146113 -0.721976
2009-05-25 08:02:49 51°14.956 2°50.902 -999 0.026977 0.144337 -0.7568
2009-05-25 08:02:54 51°14.952 2°50.907 -999 0.026669 0.142672 -0.7568
2009-05-25 08:03:00 51°14.948 2°50.912 -999 0.026669 0.142672 -0.7568
2009-05-25 08:03:04 51°14.944 2°50.916 -999 0.026463 0.141583 -0.7568
2009-05-25 08:03:09 51°14.941 2°50.921 -999 0.02636 0.141043 -0.7568
2009-05-25 08:03:14 51°14.937 2°50.925 -999 0.026257 0.140503 -0.7568
2009-05-25 08:03:19 51°14.933 2°50.929 -999 0.026463 0.141599 -0.7568
2009-05-25 08:03:24 51°14.928 2°50.933 -999 0.026772 0.14328 -0.7568
2009-05-25 08:03:29 51°14.924 2°50.937 -999 0.026772 0.14328 -0.7568
2009-05-25 08:03:34 51°14.919 2°50.941 -999 0.026154 0.139993 -0.7568
2009-05-25 08:03:39 51°14.915 2°50.945 -999 0.02636 0.141089 -0.7568
2009-05-25 08:03:44 51°14.91 2°50.948 -999 0.026051 0.139444 -0.7568
2009-05-25 08:03:49 51°14.905 2°50.951 -999 0.026051 0.139446 -0.7568
2009-05-25 08:03:53 51°14.901 2°50.953 -999 0.025948 0.138886 -0.7568
2009-05-25 08:03:59 51°14.894 2°50.956 -999 0.025948 0.138886 -0.7568
2009-05-25 08:04:04 51°14.888 2°50.958 -999 0.025948 0.138877 -0.7568
2009-05-25 08:04:09 51°14.883 2°50.96 -999 0.025846 0.138326 -0.7568
2009-05-25 08:04:14 51°14.877 2°50.962 -999 0.025846 0.138328 -0.7568
2009-05-25 08:04:19 51°14.871 2°50.963 -999 0.025743 0.13778 -0.721976
2009-05-25 08:04:24 51°14.865 2°50.964 -999 0.025743 0.137773 -0.7568
2009-05-25 08:04:29 51°14.859 2°50.964 -999 0.025743 0.137773 -0.7568
2009-05-25 08:04:34 51°14.853 2°50.964 -999 0.025846 0.138317 -0.7568
2009-05-25 08:04:40 51°14.846 2°50.964 -999 0.02564 0.137224 -0.7568
2009-05-25 08:04:44 51°14.841 2°50.963 -999 0.02564 0.137224 -0.7568
2009-05-25 08:04:49 51°14.834 2°50.962 -999 0.025537 0.13667 -0.7568
2009-05-25 08:04:53 51°14.829 2°50.961 -999 0.025846 0.138306 -0.7568
2009-05-25 08:04:59 51°14.822 2°50.959 -999 0.025846 0.138306 -0.7568
2009-05-25 08:05:04 51°14.816 2°50.957 -999 0.025537 0.136665 -0.7568
2009-05-25 08:05:09 51°14.81 2°50.955 -999 0.025434 0.136113 -0.7568
2009-05-25 08:05:14 51°14.804 2°50.953 -999 0.025331 0.13556 -0.7568
2009-05-25 08:05:19 51°14.798 2°50.95 -999 0.025331 0.135556 -0.7568
2009-05-25 08:05:24 51°14.792 2°50.947 -999 0.025331 0.135551 -0.7568
2009-05-25 08:05:29 51°14.786 2°50.944 -999 0.025331 0.135551 -0.7568
2009-05-25 08:05:34 51°14.781 2°50.941 -999 0.025228 0.134997 -0.7568
2009-05-25 08:05:39 51°14.775 2°50.937 -999 0.025228 0.134991 -0.7568
2009-05-25 08:05:44 51°14.769 2°50.934 -999 0.025228 0.134982 -0.7568
2009-05-25 08:05:49 51°14.763 2°50.93 -999 0.025125 0.134423 -0.7568
2009-05-25 08:05:54 51°14.757 2°50.926 -999 0.025125 0.134419 -0.7568
2009-05-25 08:05:59 51°14.752 2°50.921 -999 0.025125 0.134419 -0.7568
2009-05-25 08:06:04 51°14.746 2°50.917 -999 0.025125 0.134419 -0.7568
2009-05-25 08:06:09 51°14.741 2°50.912 -999 0.025125 0.134419 -0.7568
2009-05-25 08:06:14 51°14.735 2°50.907 -999 0.025022 0.133874 -0.7568
2009-05-25 08:06:19 51°14.73 2°50.902 -999 0.025022 0.133874 -0.7568
2009-05-25 08:06:24 51°14.725 2°50.897 -999 0.025022 0.13388 -0.7568
2009-05-25 08:06:29 51°14.72 2°50.892 -999 0.025022 0.13388 -0.7568
2009-05-25 08:06:34 51°14.715 2°50.887 -999 0.025022 0.13388 -0.7568
2009-05-25 08:06:39 51°14.709 2°50.881 -999 0.024919 0.133329 -0.7568
2009-05-25 08:06:44 51°14.705 2°50.876 -999 0.024919 0.133324 -0.7568
2009-05-25 08:06:49 51°14.7 2°50.87 -999 0.024919 0.133327 -0.7568
2009-05-25 08:06:54 51°14.695 2°50.864 -999 0.024919 0.133329 -0.7568
2009-05-25 08:06:59 51°14.69 2°50.858 -999 0.024919 0.133329 -0.7568
2009-05-25 08:07:04 51°14.685 2°50.852 -999 0.024919 0.133331 -0.7568
2009-05-25 08:07:08 51°14.682 2°50.847 -999 0.024816 0.132784 -0.7568
2009-05-25 08:07:14 51°14.676 2°50.84 -999 0.024816 0.132786 -0.7568
2009-05-25 08:07:19 51°14.672 2°50.833 -999 0.024816 0.132786 -0.7568
2009-05-25 08:07:24 51°14.667 2°50.827 -999 0.024816 0.132788 -0.7568
2009-05-25 08:07:29 51°14.663 2°50.82 -999 0.024816 0.132788 -0.7568
2009-05-25 08:07:34 51°14.658 2°50.813 -999 0.024816 0.13279 -0.7568
2009-05-25 08:07:39 51°14.654 2°50.806 -999 0.024714 0.132247 -0.7568
2009-05-25 08:07:44 51°14.65 2°50.799 -999 0.024714 0.132249 -0.7568
2009-05-25 08:07:49 51°14.646 2°50.792 -999 0.024816 0.132807 -0.7568
2009-05-25 08:07:54 51°14.642 2°50.785 -999 0.024714 0.132254 -0.7568
2009-05-25 08:07:59 51°14.638 2°50.778 -999 0.024714 0.132254 -0.7568
2009-05-25 08:08:04 51°14.634 2°50.771 -999 0.024714 0.132247 -0.7568
2009-05-25 08:08:09 51°14.63 2°50.763 -999 0.024714 0.132247 -0.7568
2009-05-25 08:08:14 51°14.627 2°50.756 -999 0.024714 0.132249 -0.7568
2009-05-25 08:08:19 51°14.623 2°50.749 -999 0.024611 0.131707 -0.7568
2009-05-25 08:08:24 51°14.619 2°50.742 -999 0.024611 0.131709 -0.7568
2009-05-25 08:08:29 51°14.615 2°50.734 -999 0.024611 0.131709 -0.7568
2009-05-25 08:08:33 51°14.612 2°50.728 -999 0.024611 0.131709 -0.7568
2009-05-25 08:08:39 51°14.608 2°50.719 -999 0.024611 0.131707 -0.7568
2009-05-25 08:08:44 51°14.604 2°50.712 -999 0.024611 0.131709 -0.7568
2009-05-25 08:08:49 51°14.6 2°50.704 -999 0.024611 0.131711 -0.7568
2009-05-25 08:08:54 51°14.596 2°50.697 -999 0.024611 0.131717 -0.7568
2009-05-25 08:08:59 51°14.593 2°50.689 -999 0.024611 0.131717 -0.7568
2009-05-25 08:09:04 51°14.589 2°50.682 -999 0.024611 0.131722 -0.7568
2009-05-25 08:09:09 51°14.586 2°50.674 -999 0.024508 0.131179 -0.7568
2009-05-25 08:09:14 51°14.582 2°50.666 -999 0.024508 0.131181 -0.7568
2009-05-25 08:09:20 51°14.578 2°50.657 -999 0.024508 0.131181 -0.7568
2009-05-25 08:09:24 51°14.575 2°50.651 -999 0.024508 0.131179 -0.7568
2009-05-25 08:09:29 51°14.572 2°50.643 -999 0.024508 0.131179 -0.7568
2009-05-25 08:09:33 51°14.569 2°50.637 -999 0.024508 0.131179 -0.7568
2009-05-25 08:09:40 51°14.565 2°50.626 -999 0.024508 0.131181 -0.7568
2009-05-25 08:09:44 51°14.562 2°50.619 -999 0.024508 0.131181 -0.7568
2009-05-25 08:09:49 51°14.559 2°50.612 -999 0.024405 0.130628 -0.7568
2009-05-25 08:09:54 51°14.556 2°50.604 -999 0.024405 0.130626 -0.7568
2009-05-25 08:09:59 51°14.553 2°50.596 -999 0.024405 0.130626 -0.7568
2009-05-25 08:10:04 51°14.55 2°50.588 -999 0.024405 0.13063 -0.7568
2009-05-25 08:10:09 51°14.547 2°50.58 -999 0.024405 0.130634 -0.7568
2009-05-25 08:10:14 51°14.544 2°50.573 -999 0.024405 0.13064 -0.7568
2009-05-25 08:10:19 51°14.541 2°50.565 -999 0.024405 0.130653 -0.7568
2009-05-25 08:10:24 51°14.538 2°50.557 -999 0.024405 0.130657 -0.7568
2009-05-25 08:10:29 51°14.535 2°50.549 -999 0.024405 0.130657 -0.7568
2009-05-25 08:10:34 51°14.532 2°50.542 -999 0.024405 0.130668 -0.7568
2009-05-25 08:10:39 51°14.529 2°50.534 -999 0.024405 0.13067 -0.7568
2009-05-25 08:10:44 51°14.527 2°50.526 -999 0.024405 0.130668 -0.7568
2009-05-25 08:10:49 51°14.524 2°50.518 -999 0.024405 0.130661 -0.7568
2009-05-25 08:10:54 51°14.521 2°50.511 -999 0.024405 0.130657 -0.7568
2009-05-25 08:10:59 51°14.519 2°50.503 -999 0.024405 0.130657 -0.7568
2009-05-25 08:11:04 51°14.516 2°50.495 -999 0.024302 0.130108 -0.7568
2009-05-25 08:11:09 51°14.513 2°50.488 -999 0.024405 0.130655 -0.7568
2009-05-25 08:11:14 51°14.511 2°50.48 -999 0.026875 0.143883 -0.7568
2009-05-25 08:11:19 51°14.508 2°50.473 -999 0.028212 0.151127 -0.7568
2009-05-25 08:11:24 51°14.505 2°50.465 -999 0.029138 0.156142 -0.7568
2009-05-25 08:11:29 51°14.503 2°50.457 -999 0.029138 0.156142 -0.7568
2009-05-25 08:11:34 51°14.5 2°50.45 -999 0.030168 0.161711 -0.7568
2009-05-25 08:11:39 51°14.498 2°50.442 -999 0.030373 0.162825 -0.7568
2009-05-25 08:11:44 51°14.495 2°50.435 -999 0.031917 0.171167 -0.7568
2009-05-25 08:11:48 51°14.493 2°50.429 -999 0.031608 0.169503 -0.7568
2009-05-25 08:11:54 51°14.49 2°50.42 -999 0.031402 0.168406 -0.7568
2009-05-25 08:11:59 51°14.487 2°50.412 -999 0.031402 0.168406 -0.7568
2009-05-25 08:12:04 51°14.484 2°50.404 -999 0.030476 0.163401 -0.7568
2009-05-25 08:12:09 51°14.482 2°50.397 -999 0.0313 0.16784 -0.7568
2009-05-25 08:12:14 51°14.479 2°50.389 -999 0.02955 0.158386 -0.7568
2009-05-25 08:12:19 51°14.477 2°50.382 -999 0.03202 0.171746 -0.7568
2009-05-25 08:12:24 51°14.474 2°50.374 -999 0.031711 0.170093 -0.7568
2009-05-25 08:12:29 51°14.472 2°50.366 -999 0.031711 0.170093 -0.7568
2009-05-25 08:12:34 51°14.469 2°50.359 -999 0.030991 0.166202 -0.7568
2009-05-25 08:12:39 51°14.466 2°50.351 -999 0.030682 0.164521 -0.7568
2009-05-25 08:12:44 51°14.464 2°50.344 -999 0.031917 0.171202 -0.7568
2009-05-25 08:12:49 51°14.461 2°50.336 -999 0.0313 0.167859 -0.7568
2009-05-25 08:12:54 51°14.458 2°50.328 -999 0.031505 0.168976 -0.7568
2009-05-25 08:12:59 51°14.456 2°50.321 -999 0.031505 0.168976 -0.7568
2009-05-25 08:13:04 51°14.453 2°50.313 -999 0.030065 0.161197 -0.7568
2009-05-25 08:13:09 51°14.451 2°50.305 -999 0.030373 0.162854 -0.7568
2009-05-25 08:13:13 51°14.449 2°50.299 -999 0.031094 0.166738 -0.7568
2009-05-25 08:13:19 51°14.445 2°50.29 -999 0.029756 0.159525 -0.7568
2009-05-25 08:13:24 51°14.443 2°50.283 -999 0.030065 0.161165 -0.7568
2009-05-25 08:13:29 51°14.44 2°50.275 -999 0.030065 0.161165 -0.7568
2009-05-25 08:13:34 51°14.437 2°50.268 -999 0.029859 0.160044 -0.7568
2009-05-25 08:13:39 51°14.435 2°50.26 -999 0.029241 0.156728 -0.7568
2009-05-25 08:13:44 51°14.432 2°50.252 -999 0.029756 0.159448 -0.7568
2009-05-25 08:13:49 51°14.429 2°50.245 -999 0.029859 0.160015 -0.721976
2009-05-25 08:13:54 51°14.427 2°50.237 -999 0.026875 0.143944 -0.7568
2009-05-25 08:14:00 51°14.423 2°50.228 -999 0.026875 0.143944 -0.7568
2009-05-25 08:14:04 51°14.421 2°50.222 -999 0.025743 0.137831 -0.7568
2009-05-25 08:14:09 51°14.418 2°50.214 -999 0.025537 0.13674 -0.7568
2009-05-25 08:14:13 51°14.416 2°50.208 -999 0.025537 0.136749 -0.7568
2009-05-25 08:14:20 51°14.412 2°50.198 -999 0.025434 0.136212 -0.7568
2009-05-25 08:14:24 51°14.41 2°50.191 -999 0.025331 0.135674 -0.7568
2009-05-25 08:14:29 51°14.407 2°50.184 -999 0.025331 0.135674 -0.7568
2009-05-25 08:14:34 51°14.405 2°50.176 -999 0.025331 0.135679 -0.7568
2009-05-25 08:14:39 51°14.402 2°50.169 -999 0.025228 0.135137 -0.7568
2009-05-25 08:14:44 51°14.399 2°50.161 -999 0.025434 0.136236 -0.7568
2009-05-25 08:14:49 51°14.397 2°50.153 -999 0.026875 0.14394 -0.7568
2009-05-25 08:14:54 51°14.394 2°50.146 -999 0.026772 0.143425 -0.7568
2009-05-25 08:14:59 51°14.391 2°50.138 -999 0.026772 0.143425 -0.7568
2009-05-25 08:15:04 51°14.388 2°50.13 -999 0.028109 0.15062 -0.7568
2009-05-25 08:15:09 51°14.386 2°50.123 -999 0.028727 0.153956 -0.7568
2009-05-25 08:15:14 51°14.383 2°50.115 -999 0.029036 0.155633 -0.7568
2009-05-25 08:15:19 51°14.38 2°50.108 -999 0.029653 0.158966 -0.7568
2009-05-25 08:15:24 51°14.378 2°50.1 -999 0.029344 0.15731 -0.7568
2009-05-25 08:15:29 51°14.375 2°50.092 -999 0.029344 0.15731 -0.7568
2009-05-25 08:15:34 51°14.372 2°50.084 -999 0.029962 0.160635 -0.7568
2009-05-25 08:15:39 51°14.37 2°50.077 -999 0.029447 0.157877 -0.7568
2009-05-25 08:15:44 51°14.367 2°50.069 -999 0.031814 0.170649 -0.7568
2009-05-25 08:15:49 51°14.364 2°50.061 -999 0.031917 0.171224 -0.7568
2009-05-25 08:15:54 51°14.362 2°50.054 -999 0.03202 0.171789 -0.7568
2009-05-25 08:16:00 51°14.358 2°50.045 -999 0.03202 0.171789 -0.7568
2009-05-25 08:16:04 51°14.356 2°50.039 -999 0.031402 0.168451 -0.7568
2009-05-25 08:16:09 51°14.354 2°50.031 -999 0.032431 0.17402 -0.7568
2009-05-25 08:16:14 51°14.351 2°50.023 -999 0.033255 0.178521 -0.7568
2009-05-25 08:16:19 51°14.348 2°50.015 -999 0.033255 0.178536 -0.7568
2009-05-25 08:16:24 51°14.346 2°50.007 -999 0.033666 0.180781 -0.7568
2009-05-25 08:16:28 51°14.343 2°50.001 -999 0.033666 0.180781 -0.7568
2009-05-25 08:16:34 51°14.34 2°49.992 -999 0.030476 0.163496 -0.7568
2009-05-25 08:16:39 51°14.338 2°49.984 -999 0.030065 0.161234 -0.7568
2009-05-25 08:16:44 51°14.335 2°49.977 -999 0.029653 0.158994 -0.7568
2009-05-25 08:16:49 51°14.332 2°49.969 -999 0.031814 0.170671 -0.7568
2009-05-25 08:16:54 51°14.329 2°49.961 -999 0.032226 0.172913 -0.7568
2009-05-25 08:16:59 51°14.327 2°49.953 -999 0.032226 0.172913 -0.7568
2009-05-25 08:17:04 51°14.324 2°49.946 -999 0.030579 0.164021 -0.721976
2009-05-25 08:17:09 51°14.322 2°49.938 -999 0.030785 0.16512 -0.7568
2009-05-25 08:17:14 51°14.319 2°49.93 -999 0.03027 0.162343 -0.7568
2009-05-25 08:17:19 51°14.316 2°49.922 -999 0.031814 0.170677 -0.7568
2009-05-25 08:17:24 51°14.313 2°49.915 -999 0.031197 0.167346 -0.7568
2009-05-25 08:17:29 51°14.311 2°49.907 -999 0.031197 0.167346 -0.7568
2009-05-25 08:17:34 51°14.308 2°49.899 -999 0.029653 0.159018 -0.7568
2009-05-25 08:17:39 51°14.305 2°49.891 -999 0.029653 0.159 -0.721976
2009-05-25 08:17:44 51°14.303 2°49.884 -999 0.029447 0.157892 -0.7568
2009-05-25 08:17:49 51°14.3 2°49.876 -999 0.028624 0.153437 -0.7568
2009-05-25 08:17:53 51°14.298 2°49.87 -999 0.029138 0.156186 -0.7568
2009-05-25 08:17:59 51°14.294 2°49.86 -999 0.029138 0.156186 -0.7568
2009-05-25 08:18:04 51°14.292 2°49.853 -999 0.027389 0.146769 -0.7568
2009-05-25 08:18:09 51°14.289 2°49.845 -999 0.026977 0.14453 -0.7568
2009-05-25 08:18:14 51°14.286 2°49.837 -999 0.027698 0.148367 -0.7568
2009-05-25 08:18:20 51°14.283 2°49.828 -999 0.027904 0.149487 -0.7568
2009-05-25 08:18:24 51°14.281 2°49.822 -999 0.028521 0.152824 -0.7568
2009-05-25 08:18:29 51°14.278 2°49.814 -999 0.028521 0.152824 -0.7568
2009-05-25 08:18:34 51°14.275 2°49.806 -999 0.028109 0.15063 -0.7568
2009-05-25 08:18:40 51°14.272 2°49.797 -999 0.028933 0.155057 -0.7568
2009-05-25 08:18:44 51°14.27 2°49.791 -999 0.02883 0.154509 -0.7568
2009-05-25 08:18:49 51°14.267 2°49.783 -999 0.029756 0.159501 -0.7568
2009-05-25 08:18:53 51°14.265 2°49.776 -999 0.027904 0.149539 -0.7568
2009-05-25 08:18:59 51°14.262 2°49.767 -999 0.027904 0.149539 -0.7568
2009-05-25 08:19:04 51°14.259 2°49.759 -999 0.027698 0.148411 -0.7568
2009-05-25 08:19:09 51°14.256 2°49.751 -999 0.029138 0.156152 -0.7568
2009-05-25 08:19:14 51°14.254 2°49.744 -999 0.028315 0.151729 -0.7568
2009-05-25 08:19:19 51°14.251 2°49.736 -999 0.029138 0.156165 -0.7568
2009-05-25 08:19:24 51°14.248 2°49.728 -999 0.027801 0.148958 -0.7568
2009-05-25 08:19:29 51°14.245 2°49.721 -999 0.027801 0.148958 -0.7568
2009-05-25 08:19:34 51°14.243 2°49.713 -999 0.027801 0.148953 -0.7568
2009-05-25 08:19:39 51°14.24 2°49.705 -999 0.028933 0.155057 -0.7568
2009-05-25 08:19:44 51°14.237 2°49.697 -999 0.029344 0.157287 -0.7568
2009-05-25 08:19:49 51°14.234 2°49.689 -999 0.028933 0.155057 -0.7568
2009-05-25 08:19:54 51°14.232 2°49.682 -999 0.028933 0.155064 -0.7568
2009-05-25 08:19:59 51°14.229 2°49.674 -999 0.028933 0.155064 -0.7568
2009-05-25 08:20:04 51°14.226 2°49.666 -999 0.028007 0.150076 -0.7568
2009-05-25 08:20:09 51°14.223 2°49.658 -999 0.02636 0.14124 -0.7568
2009-05-25 08:20:13 51°14.221 2°49.652 -999 0.029447 0.157819 -0.7568
2009-05-25 08:20:19 51°14.218 2°49.643 -999 0.027904 0.149539 -0.7568
2009-05-25 08:20:24 51°14.215 2°49.635 -999 0.027492 0.147316 -0.7568
2009-05-25 08:20:29 51°14.212 2°49.628 -999 0.027492 0.147316 -0.7568
2009-05-25 08:20:34 51°14.21 2°49.62 -999 0.028315 0.151739 -0.7568
2009-05-25 08:20:40 51°14.206 2°49.611 -999 0.027595 0.147877 -0.7568
2009-05-25 08:20:44 51°14.204 2°49.604 -999 0.028212 0.1512 -0.7568
2009-05-25 08:20:49 51°14.201 2°49.597 -999 0.028521 0.152871 -0.7568
2009-05-25 08:20:54 51°14.198 2°49.589 -999 0.028212 0.151209 -0.7568
2009-05-25 08:20:59 51°14.196 2°49.581 -999 0.028212 0.151209 -0.7568
2009-05-25 08:21:04 51°14.193 2°49.574 -999 0.025537 0.136858 -0.7568
2009-05-25 08:21:08 51°14.191 2°49.567 -999 0.025434 0.136311 -0.7568
2009-05-25 08:21:14 51°14.187 2°49.558 -999 0.025331 0.135764 -0.7568
2009-05-25 08:21:19 51°14.184 2°49.551 -999 0.025228 0.135222 -0.7568
2009-05-25 08:21:24 51°14.181 2°49.543 -999 0.025228 0.135231 -0.7568
2009-05-25 08:21:29 51°14.179 2°49.535 -999 0.025228 0.135231 -0.7568
2009-05-25 08:21:34 51°14.176 2°49.528 -999 0.025228 0.135246 -0.7568
2009-05-25 08:21:39 51°14.173 2°49.52 -999 0.025125 0.1347 -0.7568
2009-05-25 08:21:44 51°14.17 2°49.512 -999 0.025125 0.1347 -0.7568
2009-05-25 08:21:49 51°14.167 2°49.505 -999 0.025022 0.134149 -0.7568
2009-05-25 08:21:54 51°14.165 2°49.497 -999 0.025022 0.134144 -0.721976
2009-05-25 08:21:59 51°14.162 2°49.489 -999 0.025022 0.134144 -0.721976
2009-05-25 08:22:04 51°14.159 2°49.481 -999 0.024919 0.133594 -0.7568
2009-05-25 08:22:09 51°14.156 2°49.474 -999 0.028418 0.152334 -0.7568
2009-05-25 08:22:14 51°14.153 2°49.466 -999 0.027904 0.1496 -0.7568
2009-05-25 08:22:19 51°14.15 2°49.458 -999 0.027904 0.149617 -0.7568
2009-05-25 08:22:24 51°14.148 2°49.451 -999 0.028933 0.155159 -0.7568
2009-05-25 08:22:29 51°14.145 2°49.443 -999 0.028933 0.155159 -0.7568
2009-05-25 08:22:33 51°14.142 2°49.437 -999 0.028418 0.152397 -0.7568
2009-05-25 08:22:39 51°14.139 2°49.428 -999 0.027698 0.148513 -0.7568
2009-05-25 08:22:44 51°14.136 2°49.42 -999 0.027698 0.148501 -0.7568
2009-05-25 08:22:49 51°14.134 2°49.413 -999 0.027183 0.145732 -0.7568
2009-05-25 08:22:54 51°14.131 2°49.405 -999 0.033563 0.180227 -0.721976
2009-05-25 08:23:00 51°14.127 2°49.396 -999 0.033563 0.180227 -0.721976
2009-05-25 08:23:04 51°14.125 2°49.39 -999 0.033769 0.181403 -0.7568
2009-05-25 08:23:09 51°14.122 2°49.382 -999 0.032123 0.17264 -0.7568
2009-05-25 08:23:14 51°14.12 2°49.375 -999 0.031814 0.170863 -0.7568
2009-05-25 08:23:19 51°14.117 2°49.367 -999 0.031094 0.166969 -0.7568
2009-05-25 08:23:24 51°14.114 2°49.36 -999 0.031197 0.16753 -0.7568
2009-05-25 08:23:29 51°14.112 2°49.352 -999 0.031197 0.16753 -0.7568
2009-05-25 08:23:33 51°14.109 2°49.346 -999 0.031094 0.166985 -0.7568
2009-05-25 08:23:39 51°14.106 2°49.337 -999 0.030785 0.165334 -0.7568
2009-05-25 08:23:44 51°14.103 2°49.329 -999 0.030168 0.162058 -0.7568
2009-05-25 08:23:49 51°14.1 2°49.322 -999 0.030168 0.162055 -0.791624
2009-05-25 08:23:54 51°14.098 2°49.314 -999 0.029139 0.156499 -0.791624
2009-05-25 08:23:59 51°14.095 2°49.307 -999 0.029139 0.156499 -0.791624
2009-05-25 08:24:04 51°14.092 2°49.299 -999 0.028933 0.155393 -0.791624
2009-05-25 08:24:09 51°14.09 2°49.292 -999 0.02883 0.154859 -0.7568
2009-05-25 08:24:14 51°14.087 2°49.284 -999 0.02883 0.154859 -0.7568
2009-05-25 08:24:19 51°14.084 2°49.277 -999 0.028727 0.154297 -0.791624
2009-05-25 08:24:24 51°14.081 2°49.269 -999 0.028315 0.152067 -0.7568
2009-05-25 08:24:29 51°14.079 2°49.262 -999 0.028315 0.152067 -0.7568
2009-05-25 08:24:34 51°14.076 2°49.254 -999 0.028521 0.153182 -0.7568
2009-05-25 08:24:39 51°14.073 2°49.247 -999 0.028521 0.153187 -0.7568
2009-05-25 08:24:44 51°14.071 2°49.239 -999 0.028109 0.15097 -0.7568
2009-05-25 08:24:49 51°14.068 2°49.232 -999 0.028212 0.151544 -0.7568
2009-05-25 08:24:53 51°14.066 2°49.226 -999 0.028315 0.152112 -0.7568
2009-05-25 08:24:59 51°14.062 2°49.217 -999 0.028315 0.152112 -0.7568
2009-05-25 08:25:04 51°14.059 2°49.209 -999 0.028315 0.152133 -0.7568
2009-05-25 08:25:09 51°14.056 2°49.202 -999 0.028109 0.151028 -0.791624
2009-05-25 08:25:14 51°14.054 2°49.194 -999 0.027801 0.149353 -0.7568
2009-05-25 08:25:20 51°14.05 2°49.185 -999 0.028007 0.150454 -0.7568
2009-05-25 08:25:24 51°14.048 2°49.18 -999 0.027801 0.14934 -0.7568
2009-05-25 08:25:29 51°14.045 2°49.172 -999 0.027801 0.14934 -0.7568
2009-05-25 08:25:34 51°14.043 2°49.165 -999 0.027698 0.148792 -0.7568
2009-05-25 08:25:39 51°14.04 2°49.157 -999 0.027698 0.1488 -0.7568
2009-05-25 08:25:44 51°14.037 2°49.15 -999 0.027698 0.148802 -0.7568
2009-05-25 08:25:48 51°14.034 2°49.144 -999 0.027698 0.148809 -0.7568
2009-05-25 08:25:54 51°14.031 2°49.135 -999 0.027904 0.149918 -0.7568
2009-05-25 08:25:59 51°14.028 2°49.128 -999 0.027904 0.149918 -0.7568
2009-05-25 08:26:04 51°14.026 2°49.121 -999 0.027801 0.149363 -0.7568
2009-05-25 08:26:09 51°14.023 2°49.113 -999 0.027492 0.147694 -0.7568
2009-05-25 08:26:14 51°14.02 2°49.106 -999 0.027801 0.149363 -0.7568
2009-05-25 08:26:19 51°14.017 2°49.098 -999 0.027698 0.148817 -0.7568
2009-05-25 08:26:24 51°14.014 2°49.091 -999 0.027389 0.147155 -0.7568
2009-05-25 08:26:29 51°14.011 2°49.084 -999 0.027389 0.147155 -0.7568
2009-05-25 08:26:34 51°14.009 2°49.077 -999 0.028315 0.15215 -0.7568
2009-05-25 08:26:39 51°14.006 2°49.07 -999 0.028418 0.152714 -0.7568
2009-05-25 08:26:44 51°14.003 2°49.062 -999 0.027698 0.148844 -0.7568
2009-05-25 08:26:49 51°14 2°49.055 -999 0.027595 0.148273 -0.7568
2009-05-25 08:26:54 51°13.997 2°49.048 -999 0.028109 0.151025 -0.7568
2009-05-25 08:26:59 51°13.994 2°49.041 -999 0.028109 0.151025 -0.7568
2009-05-25 08:27:04 51°13.992 2°49.034 -999 0.028109 0.15103 -0.7568
2009-05-25 08:27:09 51°13.989 2°49.026 -999 0.027801 0.149355 -0.7568
2009-05-25 08:27:13 51°13.986 2°49.021 -999 0.027595 0.148234 -0.7568
2009-05-25 08:27:19 51°13.983 2°49.012 -999 0.027904 0.149889 -0.7568
2009-05-25 08:27:24 51°13.98 2°49.005 -999 0.027698 0.148782 -0.7568
2009-05-25 08:27:29 51°13.977 2°48.998 -999 0.027698 0.148782 -0.7568
2009-05-25 08:27:34 51°13.974 2°48.991 -999 0.027698 0.148785 -0.7568
2009-05-25 08:27:40 51°13.971 2°48.982 -999 0.027698 0.148795 -0.7568
2009-05-25 08:27:44 51°13.969 2°48.977 -999 0.027595 0.148239 -0.7568
2009-05-25 08:27:49 51°13.966 2°48.969 -999 0.027286 0.146576 -0.7568
2009-05-25 08:27:54 51°13.963 2°48.962 -999 0.027595 0.148237 -0.7568
2009-05-25 08:27:59 51°13.961 2°48.955 -999 0.027595 0.148237 -0.7568
2009-05-25 08:28:04 51°13.958 2°48.948 -999 0.027595 0.148242 -0.7568
2009-05-25 08:28:09 51°13.955 2°48.941 -999 0.027595 0.148247 -0.7568
2009-05-25 08:28:13 51°13.953 2°48.935 -999 0.027492 0.147696 -0.7568
2009-05-25 08:28:19 51°13.95 2°48.927 -999 0.027286 0.146588 -0.7568
2009-05-25 08:28:24 51°13.947 2°48.92 -999 0.027801 0.149358 -0.7568
2009-05-25 08:28:29 51°13.945 2°48.913 -999 0.027801 0.149358 -0.7568
2009-05-25 08:28:34 51°13.942 2°48.906 -999 0.027595 0.148256 -0.7568
2009-05-25 08:28:39 51°13.94 2°48.899 -999 0.027286 0.146598 -0.7568
2009-05-25 08:28:44 51°13.938 2°48.892 -999 0.027183 0.14604 -0.7568
2009-05-25 08:28:49 51°13.935 2°48.885 -999 0.027492 0.147699 -0.7568
2009-05-25 08:28:54 51°13.933 2°48.878 -999 0.027286 0.146595 -0.7568
2009-05-25 08:28:59 51°13.931 2°48.87 -999 0.027286 0.146595 -0.7568
2009-05-25 08:29:04 51°13.929 2°48.863 -999 0.027286 0.146598 -0.7568
2009-05-25 08:29:09 51°13.927 2°48.856 -999 0.027389 0.147155 -0.7568
2009-05-25 08:29:14 51°13.925 2°48.849 -999 0.027183 0.146052 -0.7568
2009-05-25 08:29:19 51°13.923 2°48.842 -999 0.027286 0.14661 -0.7568
2009-05-25 08:29:24 51°13.921 2°48.835 -999 0.027183 0.146057 -0.7568
2009-05-25 08:29:29 51°13.919 2°48.828 -999 0.027183 0.146057 -0.7568
2009-05-25 08:29:33 51°13.918 2°48.822 -999 0.027595 0.148276 -0.7568
2009-05-25 08:29:39 51°13.916 2°48.814 -999 0.027286 0.146617 -0.7568
2009-05-25 08:29:44 51°13.915 2°48.807 -999 0.027389 0.147175 -0.721976
2009-05-25 08:29:49 51°13.914 2°48.8 -999 0.027286 0.146617 -0.721976
2009-05-25 08:29:54 51°13.912 2°48.792 -999 0.027389 0.147168 -0.721976
2009-05-25 08:30:00 51°13.911 2°48.784 -999 0.027389 0.147168 -0.721976
2009-05-25 08:30:04 51°13.91 2°48.778 -999 0.027183 0.14606 -0.721976
2009-05-25 08:30:09 51°13.909 2°48.771 -999 0.02708 0.145509 -0.721976
2009-05-25 08:30:14 51°13.908 2°48.764 -999 0.027595 0.148288 -0.721976
2009-05-25 08:30:19 51°13.907 2°48.757 -999 0.027595 0.148308 -0.721976
2009-05-25 08:30:24 51°13.906 2°48.75 -999 0.027801 0.149424 -0.721976
2009-05-25 08:30:28 51°13.905 2°48.745 -999 0.027801 0.149424 -0.721976
2009-05-25 08:30:34 51°13.904 2°48.736 -999 0.027286 0.146644 -0.721976
2009-05-25 08:30:39 51°13.904 2°48.729 -999 0.027698 0.148861 -0.721976
2009-05-25 08:30:44 51°13.903 2°48.722 -999 0.027183 0.146088 -0.721976
2009-05-25 08:30:49 51°13.902 2°48.715 -999 0.027389 0.14718 -0.721976
2009-05-25 08:30:54 51°13.902 2°48.708 -999 0.02708 0.145512 -0.721976
2009-05-25 08:30:59 51°13.902 2°48.702 -999 0.02708 0.145512 -0.721976
2009-05-25 08:31:04 51°13.901 2°48.695 -999 0.027286 0.146612 -0.721976
2009-05-25 08:31:09 51°13.901 2°48.689 -999 0.027183 0.14606 -0.721976
2009-05-25 08:31:14 51°13.9 2°48.682 -999 0.027698 0.148827 -0.721976
2009-05-25 08:31:19 51°13.9 2°48.676 -999 0.027389 0.147175 -0.721976
2009-05-25 08:31:24 51°13.899 2°48.67 -999 0.02708 0.145521 -0.687152
2009-05-25 08:31:29 51°13.899 2°48.664 -999 0.02708 0.145521 -0.687152
2009-05-25 08:31:34 51°13.899 2°48.658 -999 0.02708 0.145519 -0.721976
2009-05-25 08:31:39 51°13.898 2°48.652 -999 0.026977 0.144964 -0.721976
2009-05-25 08:31:44 51°13.898 2°48.646 -999 0.02708 0.145519 -0.721976
2009-05-25 08:31:49 51°13.898 2°48.64 -999 0.027183 0.146079 -0.721976
2009-05-25 08:31:53 51°13.897 2°48.636 -999 0.02708 0.145541 -0.687152
2009-05-25 08:32:00 51°13.896 2°48.628 -999 0.02708 0.145541 -0.687152
2009-05-25 08:32:04 51°13.896 2°48.623 -999 0.027183 0.146105 -0.687152
2009-05-25 08:32:09 51°13.895 2°48.618 -999 0.027286 0.146656 -0.687152
2009-05-25 08:32:14 51°13.895 2°48.612 -999 0.027389 0.147206 -0.687152
2009-05-25 08:32:20 51°13.894 2°48.606 -999 0.026977 0.14499 -0.687152
2009-05-25 08:32:24 51°13.894 2°48.602 -999 0.027286 0.146646 -0.687152
2009-05-25 08:32:29 51°13.893 2°48.596 -999 0.027286 0.146646 -0.687152
2009-05-25 08:32:34 51°13.892 2°48.591 -999 0.027183 0.146096 -0.687152
2009-05-25 08:32:39 51°13.892 2°48.586 -999 0.027389 0.147201 -0.687152
2009-05-25 08:32:44 51°13.891 2°48.581 -999 0.027389 0.147214 -0.687152
2009-05-25 08:32:48 51°13.891 2°48.577 -999 0.027904 0.150005 -0.687152
2009-05-25 08:32:54 51°13.89 2°48.571 -999 0.026977 0.145005 -0.687152
2009-05-25 08:32:59 51°13.889 2°48.566 -999 0.026977 0.145005 -0.687152
2009-05-25 08:33:04 51°13.889 2°48.561 -999 0.027183 0.146098 -0.687152
2009-05-25 08:33:09 51°13.888 2°48.556 -999 0.027183 0.146091 -0.687152
2009-05-25 08:33:14 51°13.887 2°48.552 -999 0.027286 0.146644 -0.687152
2009-05-25 08:33:19 51°13.886 2°48.547 -999 0.027286 0.146644 -0.687152
2009-05-25 08:33:24 51°13.886 2°48.543 -999 0.02708 0.145538 -0.687152
2009-05-25 08:33:29 51°13.885 2°48.538 -999 0.02708 0.145538 -0.687152
2009-05-25 08:33:34 51°13.884 2°48.534 -999 0.02708 0.145538 -0.652328
2009-05-25 08:33:39 51°13.883 2°48.529 -999 0.027286 0.146648 -0.652328
2009-05-25 08:33:44 51°13.883 2°48.525 -999 0.026669 0.143326 -0.652328
2009-05-25 08:33:49 51°13.882 2°48.52 -999 0.02708 0.145541 -0.652328
2009-05-25 08:33:54 51°13.881 2°48.516 -999 0.026875 0.144438 -0.652328
2009-05-25 08:33:59 51°13.88 2°48.512 -999 0.026875 0.144438 -0.652328
2009-05-25 08:34:04 51°13.88 2°48.508 -999 0.02708 0.145543 -0.652328
2009-05-25 08:34:09 51°13.879 2°48.504 -999 0.026772 0.143888 -0.652328
2009-05-25 08:34:13 51°13.878 2°48.5 -999 0.026875 0.14444 -0.652328
2009-05-25 08:34:20 51°13.877 2°48.495 -999 0.02708 0.145545 -0.652328
2009-05-25 08:34:24 51°13.877 2°48.492 -999 0.026566 0.142788 -0.652328
2009-05-25 08:34:29 51°13.876 2°48.488 -999 0.026566 0.142788 -0.652328
2009-05-25 08:34:34 51°13.875 2°48.484 -999 0.026977 0.144997 -0.652328
2009-05-25 08:34:40 51°13.875 2°48.479 -999 0.026669 0.14334 -0.652328
2009-05-25 08:34:44 51°13.874 2°48.476 -999 0.026772 0.14389 -0.652328
2009-05-25 08:34:49 51°13.873 2°48.472 -999 0.027183 0.146108 -0.652328
2009-05-25 08:34:54 51°13.872 2°48.468 -999 0.026566 0.142793 -0.652328
2009-05-25 08:34:59 51°13.872 2°48.465 -999 0.026566 0.142793 -0.652328
2009-05-25 08:35:04 51°13.871 2°48.461 -999 0.026875 0.14445 -0.617504
2009-05-25 08:35:09 51°13.87 2°48.458 -999 0.02636 0.141682 -0.617504
2009-05-25 08:35:14 51°13.869 2°48.454 -999 0.026566 0.142781 -0.617504
2009-05-25 08:35:19 51°13.868 2°48.45 -999 0.026669 0.143338 -0.617504
2009-05-25 08:35:24 51°13.868 2°48.447 -999 0.026463 0.142229 -0.617504
2009-05-25 08:35:29 51°13.867 2°48.443 -999 0.026463 0.142229 -0.617504
2009-05-25 08:35:34 51°13.866 2°48.44 -999 0.026669 0.143333 -0.617504
2009-05-25 08:35:39 51°13.865 2°48.437 -999 0.026463 0.142224 -0.617504
2009-05-25 08:35:44 51°13.864 2°48.433 -999 0.02708 0.145545 -0.617504
2009-05-25 08:35:49 51°13.864 2°48.43 -999 0.026463 0.142231 -0.617504
2009-05-25 08:35:54 51°13.863 2°48.427 -999 0.026772 0.14389 -0.617504
2009-05-25 08:35:59 51°13.862 2°48.424 -999 0.026772 0.14389 -0.617504
2009-05-25 08:36:04 51°13.861 2°48.421 -999 0.026566 0.142783 -0.617504
2009-05-25 08:36:09 51°13.86 2°48.418 -999 0.026566 0.142779 -0.617504
2009-05-25 08:36:14 51°13.86 2°48.415 -999 0.02636 0.141672 -0.617504
2009-05-25 08:36:19 51°13.859 2°48.412 -999 0.026566 0.142776 -0.617504
2009-05-25 08:36:24 51°13.858 2°48.409 -999 0.026566 0.142781 -0.617504
2009-05-25 08:36:28 51°13.857 2°48.407 -999 0.026566 0.142781 -0.617504
2009-05-25 08:36:34 51°13.856 2°48.403 -999 0.026566 0.142786 -0.617504
2009-05-25 08:36:39 51°13.856 2°48.401 -999 0.026669 0.143343 -0.58268
2009-05-25 08:36:44 51°13.855 2°48.398 -999 0.026566 0.14279 -0.58268
2009-05-25 08:36:49 51°13.854 2°48.395 -999 0.026977 0.145007 -0.617504
2009-05-25 08:36:54 51°13.853 2°48.393 -999 0.026772 0.143904 -0.58268
2009-05-25 08:36:59 51°13.852 2°48.39 -999 0.026772 0.143904 -0.58268
2009-05-25 08:37:04 51°13.851 2°48.387 -999 0.027183 0.14612 -0.58268
2009-05-25 08:37:09 51°13.85 2°48.384 -999 0.026463 0.142248 -0.58268
2009-05-25 08:37:14 51°13.85 2°48.382 -999 0.026669 0.143345 -0.58268
2009-05-25 08:37:19 51°13.848 2°48.379 -999 0.026566 0.142786 -0.58268
2009-05-25 08:37:24 51°13.848 2°48.377 -999 0.026566 0.142788 -0.58268
2009-05-25 08:37:29 51°13.847 2°48.374 -999 0.026566 0.142788 -0.58268
2009-05-25 08:37:34 51°13.846 2°48.372 -999 0.02636 0.141682 -0.58268
2009-05-25 08:37:39 51°13.845 2°48.369 -999 0.026566 0.14279 -0.58268
2009-05-25 08:37:44 51°13.844 2°48.367 -999 0.02636 0.141686 -0.58268
2009-05-25 08:37:49 51°13.843 2°48.365 -999 0.026566 0.14279 -0.58268
2009-05-25 08:37:53 51°13.842 2°48.363 -999 0.026463 0.142238 -0.58268
2009-05-25 08:37:59 51°13.841 2°48.36 -999 0.026463 0.142238 -0.58268
2009-05-25 08:38:04 51°13.84 2°48.358 -999 0.02636 0.141686 -0.58268
2009-05-25 08:38:09 51°13.839 2°48.356 -999 0.02636 0.141686 -0.58268
2009-05-25 08:38:14 51°13.838 2°48.353 -999 0.02636 0.141693 -0.58268
2009-05-25 08:38:19 51°13.837 2°48.351 -999 0.02636 0.141696 -0.547855
2009-05-25 08:38:24 51°13.836 2°48.349 -999 0.026051 0.14004 -0.58268
2009-05-25 08:38:29 51°13.835 2°48.346 -999 0.026051 0.14004 -0.58268
2009-05-25 08:38:34 51°13.835 2°48.344 -999 0.026669 0.143354 -0.547855
2009-05-25 08:38:40 51°13.833 2°48.342 -999 0.026257 0.141146 -0.58268
2009-05-25 08:38:44 51°13.832 2°48.34 -999 0.02636 0.141693 -0.547855
2009-05-25 08:38:49 51°13.831 2°48.338 -999 0.026257 0.141137 -0.547855
2009-05-25 08:38:53 51°13.831 2°48.336 -999 0.02636 0.141686 -0.58268
2009-05-25 08:39:00 51°13.829 2°48.334 -999 0.02636 0.141686 -0.58268
2009-05-25 08:39:04 51°13.828 2°48.332 -999 0.02636 0.141684 -0.547855
2009-05-25 08:39:09 51°13.827 2°48.33 -999 0.02636 0.141682 -0.547855
2009-05-25 08:39:14 51°13.826 2°48.328 -999 0.026463 0.142231 -0.547855
2009-05-25 08:39:19 51°13.825 2°48.326 -999 0.026566 0.142786 -0.547855
2009-05-25 08:39:24 51°13.824 2°48.324 -999 0.02636 0.141677 -0.547855
2009-05-25 08:39:29 51°13.823 2°48.322 -999 0.02636 0.141677 -0.547855
2009-05-25 08:39:34 51°13.822 2°48.32 -999 0.026463 0.142229 -0.547855
2009-05-25 08:39:39 51°13.821 2°48.318 -999 0.026257 0.141127 -0.547855
2009-05-25 08:39:44 51°13.82 2°48.316 -999 0.026257 0.14113 -0.547855
2009-05-25 08:39:49 51°13.819 2°48.314 -999 0.026051 0.140026 -0.547855
2009-05-25 08:39:54 51°13.817 2°48.312 -999 0.02636 0.141682 -0.547855
2009-05-25 08:39:59 51°13.816 2°48.311 -999 0.02636 0.141682 -0.547855
2009-05-25 08:40:04 51°13.815 2°48.309 -999 0.02636 0.141682 -0.547855
2009-05-25 08:40:09 51°13.814 2°48.307 -999 0.026566 0.142786 -0.547855
2009-05-25 08:40:14 51°13.813 2°48.305 -999 0.026669 0.14334 -0.547855
2009-05-25 08:40:19 51°13.812 2°48.303 -999 0.02636 0.141686 -0.547855
2009-05-25 08:40:24 51°13.81 2°48.301 -999 0.026463 0.142238 -0.547855
2009-05-25 08:40:29 51°13.809 2°48.299 -999 0.026463 0.142238 -0.547855
2009-05-25 08:40:34 51°13.808 2°48.297 -999 0.02636 0.141686 -0.547855
2009-05-25 08:40:39 51°13.807 2°48.295 -999 0.02636 0.141686 -0.547855
2009-05-25 08:40:44 51°13.805 2°48.294 -999 0.02636 0.141691 -0.547855
2009-05-25 08:40:49 51°13.804 2°48.292 -999 0.026463 0.142252 -0.513031
2009-05-25 08:40:53 51°13.803 2°48.29 -999 0.026463 0.142257 -0.513031
2009-05-25 08:40:59 51°13.802 2°48.288 -999 0.026463 0.142257 -0.513031
2009-05-25 08:41:04 51°13.8 2°48.286 -999 0.026257 0.141153 -0.547855
2009-05-25 08:41:09 51°13.799 2°48.284 -999 0.026463 0.142266 -0.513031
2009-05-25 08:41:14 51°13.798 2°48.282 -999 0.026257 0.141167 -0.547855
2009-05-25 08:41:20 51°13.796 2°48.28 -999 0.026257 0.141167 -0.513031
2009-05-25 08:41:24 51°13.795 2°48.278 -999 0.026669 0.14338 -0.547855
2009-05-25 08:41:29 51°13.794 2°48.276 -999 0.026669 0.14338 -0.547855
2009-05-25 08:41:34 51°13.793 2°48.274 -999 0.026257 0.141171 -0.547855
2009-05-25 08:41:40 51°13.791 2°48.272 -999 0.026566 0.14283 -0.513031
2009-05-25 08:41:44 51°13.79 2°48.27 -999 0.026257 0.141169 -0.513031
2009-05-25 08:41:49 51°13.789 2°48.268 -999 0.026463 0.142273 -0.513031
2009-05-25 08:41:54 51°13.787 2°48.266 -999 0.026257 0.141169 -0.513031
2009-05-25 08:41:59 51°13.786 2°48.264 -999 0.026257 0.141169 -0.513031
2009-05-25 08:42:04 51°13.785 2°48.262 -999 0.02636 0.141716 -0.513031
2009-05-25 08:42:08 51°13.784 2°48.261 -999 0.026257 0.141164 -0.513031
2009-05-25 08:42:14 51°13.782 2°48.258 -999 0.026257 0.141164 -0.513031
2009-05-25 08:42:19 51°13.781 2°48.257 -999 0.026257 0.141171 -0.513031
2009-05-25 08:42:24 51°13.779 2°48.255 -999 0.026154 0.140619 -0.513031
2009-05-25 08:42:28 51°13.778 2°48.253 -999 0.026154 0.140619 -0.513031
2009-05-25 08:42:34 51°13.776 2°48.251 -999 0.026566 0.14283 -0.513031
2009-05-25 08:42:39 51°13.775 2°48.249 -999 0.026463 0.142283 -0.513031
2009-05-25 08:42:44 51°13.774 2°48.247 -999 0.02636 0.14173 -0.513031
2009-05-25 08:42:49 51°13.772 2°48.245 -999 0.026463 0.142283 -0.513031
2009-05-25 08:42:54 51°13.771 2°48.243 -999 0.026463 0.142287 -0.513031
2009-05-25 08:42:59 51°13.769 2°48.241 -999 0.026463 0.142287 -0.513031
2009-05-25 08:43:04 51°13.768 2°48.239 -999 0.02636 0.141742 -0.513031
2009-05-25 08:43:09 51°13.767 2°48.237 -999 0.026257 0.14119 -0.513031
2009-05-25 08:43:14 51°13.765 2°48.235 -999 0.026669 0.143411 -0.513031
2009-05-25 08:43:19 51°13.764 2°48.233 -999 0.026463 0.142315 -0.513031
2009-05-25 08:43:24 51°13.762 2°48.232 -999 0.026566 0.142872 -0.513031
2009-05-25 08:43:29 51°13.761 2°48.23 -999 0.026566 0.142872 -0.513031
2009-05-25 08:43:33 51°13.759 2°48.228 -999 0.026669 0.143432 -0.513031
2009-05-25 08:43:39 51°13.758 2°48.226 -999 0.026257 0.141218 -0.513031
2009-05-25 08:43:44 51°13.756 2°48.224 -999 0.026566 0.142877 -0.513031
2009-05-25 08:43:49 51°13.755 2°48.222 -999 0.026257 0.141211 -0.513031
2009-05-25 08:43:54 51°13.753 2°48.22 -999 0.026257 0.141218 -0.513031
2009-05-25 08:43:59 51°13.752 2°48.219 -999 0.026257 0.141218 -0.513031
2009-05-25 08:44:04 51°13.75 2°48.217 -999 0.026154 0.140668 -0.513031
2009-05-25 08:44:09 51°13.749 2°48.215 -999 0.026154 0.14067 -0.513031
2009-05-25 08:44:14 51°13.747 2°48.213 -999 0.02636 0.141779 -0.478207
2009-05-25 08:44:19 51°13.746 2°48.211 -999 0.026566 0.142891 -0.513031
2009-05-25 08:44:24 51°13.744 2°48.209 -999 0.02636 0.141786 -0.513031
2009-05-25 08:44:29 51°13.743 2°48.208 -999 0.02636 0.141786 -0.513031
2009-05-25 08:44:34 51°13.741 2°48.206 -999 0.026772 0.143999 -0.478207
2009-05-25 08:44:39 51°13.74 2°48.204 -999 0.026669 0.143456 -0.513031
2009-05-25 08:44:44 51°13.738 2°48.202 -999 0.026463 0.142348 -0.513031
2009-05-25 08:44:49 51°13.736 2°48.2 -999 0.026463 0.14235 -0.513031
2009-05-25 08:44:53 51°13.735 2°48.199 -999 0.02636 0.141795 -0.513031
2009-05-25 08:44:59 51°13.733 2°48.197 -999 0.02636 0.141795 -0.513031
2009-05-25 08:45:04 51°13.732 2°48.195 -999 0.026257 0.141241 -0.478207
2009-05-25 08:45:09 51°13.73 2°48.193 -999 0.02636 0.141795 -0.478207
2009-05-25 08:45:14 51°13.729 2°48.192 -999 0.026463 0.142355 -0.478207
2009-05-25 08:45:20 51°13.727 2°48.189 -999 0.02636 0.141807 -0.478207
2009-05-25 08:45:24 51°13.726 2°48.188 -999 0.026463 0.142362 -0.478207
2009-05-25 08:45:29 51°13.724 2°48.186 -999 0.026463 0.142362 -0.478207
2009-05-25 08:45:34 51°13.722 2°48.185 -999 0.026463 0.142367 -0.478207
2009-05-25 08:45:39 51°13.721 2°48.183 -999 0.026154 0.140705 -0.513031
2009-05-25 08:45:44 51°13.719 2°48.181 -999 0.026154 0.140705 -0.478207
2009-05-25 08:45:48 51°13.718 2°48.179 -999 0.026154 0.140707 -0.478207
2009-05-25 08:45:54 51°13.716 2°48.177 -999 0.026463 0.142369 -0.478207
2009-05-25 08:45:59 51°13.714 2°48.175 -999 0.026463 0.142369 -0.478207
2009-05-25 08:46:04 51°13.713 2°48.173 -999 0.02636 0.141819 -0.478207
2009-05-25 08:46:09 51°13.711 2°48.171 -999 0.02636 0.141816 -0.478207
2009-05-25 08:46:14 51°13.71 2°48.17 -999 0.026154 0.140707 -0.478207
2009-05-25 08:46:19 51°13.708 2°48.168 -999 0.026154 0.140712 -0.478207
2009-05-25 08:46:24 51°13.706 2°48.166 -999 0.025948 0.139605 -0.478207
2009-05-25 08:46:29 51°13.705 2°48.164 -999 0.025948 0.139605 -0.478207
2009-05-25 08:46:34 51°13.703 2°48.162 -999 0.026566 0.142924 -0.478207
2009-05-25 08:46:39 51°13.702 2°48.161 -999 0.026566 0.142929 -0.478207
2009-05-25 08:46:44 51°13.7 2°48.159 -999 0.02636 0.141833 -0.478207
2009-05-25 08:46:49 51°13.698 2°48.157 -999 0.026154 0.140728 -0.478207
2009-05-25 08:46:54 51°13.697 2°48.155 -999 0.025948 0.139623 -0.478207
2009-05-25 08:46:59 51°13.695 2°48.153 -999 0.025948 0.139623 -0.478207
2009-05-25 08:47:04 51°13.694 2°48.151 -999 0.026154 0.14073 -0.478207
2009-05-25 08:47:09 51°13.692 2°48.15 -999 0.026154 0.140732 -0.478207
2009-05-25 08:47:13 51°13.691 2°48.148 -999 0.026154 0.140728 -0.478207
2009-05-25 08:47:19 51°13.689 2°48.146 -999 0.026154 0.140737 -0.478207
2009-05-25 08:47:24 51°13.687 2°48.144 -999 0.026257 0.141287 -0.478207
2009-05-25 08:47:29 51°13.685 2°48.142 -999 0.026257 0.141287 -0.478207
2009-05-25 08:47:34 51°13.684 2°48.141 -999 0.026154 0.140737 -0.478207
2009-05-25 08:47:40 51°13.682 2°48.138 -999 0.026051 0.140178 -0.478207
2009-05-25 08:47:44 51°13.68 2°48.137 -999 0.026154 0.140735 -0.478207
2009-05-25 08:47:49 51°13.679 2°48.135 -999 0.026257 0.141289 -0.478207
2009-05-25 08:47:54 51°13.677 2°48.134 -999 0.026257 0.141294 -0.478207